Observation data for Colorado City on 10/13/2019      Previous  Date  Next       Current Mesonet Observations  Soil Data  Daily Summary Page  Observations in Plain Language
KCO2 130500Z 16005KT 11/M01 A3003 RMK A01 T01141009  RH  043%=      5-min Rain = 0
KCO2 130501Z 16005KT 11/M01 A3003 RMK A01 T01141008  RH  043%=      5-min Rain = 0
KCO2 130502Z 16004KT 11/M01 A3003 RMK A01 T01131009  RH  043%=      5-min Rain = 0
KCO2 130503Z 16004KT 11/M01 A3003 RMK A01 T01131008  RH  043%=      5-min Rain = 0
KCO2 130504Z 16005KT 11/M01 A3003 RMK A01 T01131009  RH  043%=      5-min Rain = 0
KCO2 130505Z 16005KT 11/M01 A3003 RMK A01 T01121009  RH  043%=      5-min Rain = 0
KCO2 130506Z 15005KT 11/M01 A3002 RMK A01 T01111009  RH  043%=      5-min Rain = 0
KCO2 130507Z 15005KT 11/M01 A3002 RMK A01 T01101009  RH  043%=      5-min Rain = 0
KCO2 130508Z 16005KT 11/M01 A3002 RMK A01 T01091009  RH  044%=      5-min Rain = 0
KCO2 130509Z 16005KT 11/M01 A3002 RMK A01 T01091009  RH  044%=      5-min Rain = 0
KCO2 130510Z 16005KT 11/M01 A3002 RMK A01 T01081009  RH  044%=      5-min Rain = 0
KCO2 130511Z 16005KT 11/M01 A3002 RMK A01 T01071009  RH  044%=      5-min Rain = 0
KCO2 130512Z 16005KT 11/M01 A3002 RMK A01 T01061010  RH  044%=      5-min Rain = 0
KCO2 130513Z 16005KT 11/M01 A3002 RMK A01 T01061010  RH  045%=      5-min Rain = 0
KCO2 130514Z 16005KT 11/M01 A3002 RMK A01 T01051010  RH  045%=      5-min Rain = 0
KCO2 130515Z 16005KT 10/M01 A3002 RMK A01 T01041009  RH  045%=      5-min Rain = 0
KCO2 130516Z 16005KT 10/M01 A3002 RMK A01 T01041009  RH  045%=      5-min Rain = 0
KCO2 130517Z 16005KT 10/M01 A3002 RMK A01 T01041009  RH  045%=      5-min Rain = 0
KCO2 130518Z 17005KT 10/M01 A3002 RMK A01 T01041009  RH  045%=      5-min Rain = 0
KCO2 130519Z 17005KT 10/M01 A3002 RMK A01 T01041010  RH  045%=      5-min Rain = 0
KCO2 130520Z 17005KT 11/M01 A3002 RMK A01 T01051009  RH  045%=      5-min Rain = 0
KCO2 130521Z 17005KT 11/M01 A3002 RMK A01 T01061008  RH  045%=      5-min Rain = 0
KCO2 130522Z 17005KT 11/M01 A3002 RMK A01 T01071008  RH  045%=      5-min Rain = 0
KCO2 130523Z 17006KT 11/M01 A3002 RMK A01 T01081009  RH  044%=      5-min Rain = 0
KCO2 130524Z 17006KT 11/M01 A3002 RMK A01 T01081008  RH  045%=      5-min Rain = 0
KCO2 130525Z 17006KT 11/M01 A3002 RMK A01 T01081008  RH  045%=      5-min Rain = 0
KCO2 130526Z 17006KT 11/M01 A3002 RMK A01 T01061009  RH  045%=      5-min Rain = 0
KCO2 130527Z 17006KT 11/M01 A3002 RMK A01 T01051009  RH  045%=      5-min Rain = 0
KCO2 130528Z 17005KT 11/M01 A3002 RMK A01 T01051009  RH  045%=      5-min Rain = 0
KCO2 130529Z 17005KT 10/M01 A3002 RMK A01 T01041008  RH  045%=      5-min Rain = 0
KCO2 130530Z 17005KT 11/M01 A3002 RMK A01 T01051008  RH  046%=      5-min Rain = 0
KCO2 130531Z 16005KT 11/M01 A3002 RMK A01 T01051008  RH  046%=      5-min Rain = 0
KCO2 130532Z 16005KT 11/M01 A3002 RMK A01 T01051007  RH  046%=      5-min Rain = 0
KCO2 130533Z 16005KT 10/M01 A3002 RMK A01 T01041008  RH  046%=      5-min Rain = 0
KCO2 130534Z 16005KT 11/M01 A3002 RMK A01 T01051007  RH  046%=      5-min Rain = 0
KCO2 130535Z 16005KT 11/M01 A3002 RMK A01 T01051007  RH  046%=      5-min Rain = 0
KCO2 130536Z 16005KT 11/M01 A3002 RMK A01 T01051007  RH  046%=      5-min Rain = 0
KCO2 130537Z 16004KT 11/M01 A3002 RMK A01 T01051007  RH  046%=      5-min Rain = 0
KCO2 130538Z 16005KT 11/M01 A3002 RMK A01 T01051007  RH  046%=      5-min Rain = 0
KCO2 130539Z 16005KT 11/M01 A3002 RMK A01 T01061007  RH  046%=      5-min Rain = 0
KCO2 130540Z 17005KT 11/M01 A3002 RMK A01 T01061007  RH  046%=      5-min Rain = 0
KCO2 130541Z 17005KT 11/M01 A3002 RMK A01 T01061007  RH  045%=      5-min Rain = 0
KCO2 130542Z 17005KT 11/M01 A3002 RMK A01 T01071007  RH  045%=      5-min Rain = 0
KCO2 130543Z 17005KT 11/M01 A3001 RMK A01 T01061007  RH  045%=      5-min Rain = 0
KCO2 130544Z 17005KT 11/M01 A3001 RMK A01 T01051008  RH  046%=      5-min Rain = 0
KCO2 130545Z 17005KT 11/M01 A3001 RMK A01 T01051008  RH  046%=      5-min Rain = 0
KCO2 130546Z 17006KT 10/M01 A3001 RMK A01 T01041008  RH  046%=      5-min Rain = 0
KCO2 130547Z 17006KT 10/M01 A3001 RMK A01 T01031008  RH  046%=      5-min Rain = 0
KCO2 130548Z 17006KT 10/M01 A3001 RMK A01 T01021008  RH  046%=      5-min Rain = 0
KCO2 130549Z 18006KT 10/M01 A3001 RMK A01 T01011008  RH  047%=      5-min Rain = 0
KCO2 130550Z 18005KT 10/M01 A3001 RMK A01 T01001008  RH  047%=      5-min Rain = 0
KCO2 130551Z 18005KT 10/M01 A3001 RMK A01 T01001008  RH  047%=      5-min Rain = 0
KCO2 130552Z 18005KT 10/M01 A3001 RMK A01 T01001008  RH  047%=      5-min Rain = 0
KCO2 130553Z 18005KT 10/M01 A3001 RMK A01 T01001008  RH  047%=      5-min Rain = 0
KCO2 130554Z 18005KT 10/M01 A3001 RMK A01 T01011008  RH  047%=      5-min Rain = 0
KCO2 130555Z 18005KT 10/M01 A3001 RMK A01 T01011008  RH  047%=      5-min Rain = 0
KCO2 130556Z 18005KT 10/M01 A3001 RMK A01 T01021008  RH  047%=      5-min Rain = 0
KCO2 130557Z 18006KT 10/M01 A3001 RMK A01 T01021008  RH  046%=      5-min Rain = 0
KCO2 130558Z 18006KT 10/M01 A3001 RMK A01 T01021008  RH  046%=      5-min Rain = 0
KCO2 130559Z 18006KT 10/M01 A3001 RMK A01 T01011008  RH  047%=      5-min Rain = 0
KCO2 130600Z 18006KT 10/M01 A3001 RMK A01 T01001008  RH  047%=      5-min Rain = 0
KCO2 130601Z 18006KT 10/M01 A3001 RMK A01 T00991007  RH  048%=      5-min Rain = 0
KCO2 130602Z 18006KT 10/M01 A3001 RMK A01 T00991007  RH  048%=      5-min Rain = 0
KCO2 130603Z 18006KT 10/M01 A3001 RMK A01 T00981006  RH  048%=      5-min Rain = 0
KCO2 130604Z 18006KT 10/M01 A3001 RMK A01 T00981006  RH  048%=      5-min Rain = 0
KCO2 130605Z 17006KT 10/M01 A3001 RMK A01 T00981006  RH  048%=      5-min Rain = 0
KCO2 130606Z 17006KT 10/M01 A3001 RMK A01 T00991005  RH  048%=      5-min Rain = 0
KCO2 130607Z 17006KT 10/M01 A3001 RMK A01 T00991005  RH  048%=      5-min Rain = 0
KCO2 130608Z 17006KT 10/M01 A3001 RMK A01 T00991005  RH  048%=      5-min Rain = 0
KCO2 130609Z 17006KT 10/M01 A3001 RMK A01 T01001005  RH  048%=      5-min Rain = 0
KCO2 130610Z 17006KT 10/M01 A3001 RMK A01 T01001005  RH  048%=      5-min Rain = 0
KCO2 130611Z 17006KT 10/M01 A3001 RMK A01 T01011005  RH  048%=      5-min Rain = 0
KCO2 130612Z 17007KT 10/M01 A3001 RMK A01 T01001006  RH  048%=      5-min Rain = 0
KCO2 130613Z 17007KT 10/M01 A3001 RMK A01 T00991006  RH  048%=      5-min Rain = 0
KCO2 130614Z 17007KT 10/M01 A3001 RMK A01 T00991006  RH  048%=      5-min Rain = 0
KCO2 130615Z 17007KT 10/M01 A3001 RMK A01 T00991006  RH  048%=      5-min Rain = 0
KCO2 130616Z 17007KT 10/M01 A3001 RMK A01 T01001006  RH  048%=      5-min Rain = 0
KCO2 130617Z 17007KT 10/M01 A3001 RMK A01 T01001006  RH  048%=      5-min Rain = 0
KCO2 130618Z 17007KT 10/M01 A3001 RMK A01 T01011006  RH  048%=      5-min Rain = 0
KCO2 130619Z 17007KT 10/M01 A3001 RMK A01 T01021005  RH  047%=      5-min Rain = 0
KCO2 130620Z 17007KT 10/M01 A3001 RMK A01 T01021005  RH  047%=      5-min Rain = 0
KCO2 130621Z 17007KT 10/M01 A3001 RMK A01 T01031005  RH  047%=      5-min Rain = 0
KCO2 130622Z 17007KT 10/M01 A3001 RMK A01 T01021005  RH  047%=      5-min Rain = 0
KCO2 130623Z 17007KT 10/M01 A3001 RMK A01 T01021005  RH  047%=      5-min Rain = 0
KCO2 130624Z 17006KT 10/M01 A3001 RMK A01 T01021005  RH  047%=      5-min Rain = 0
KCO2 130625Z 16006KT 10/M01 A3001 RMK A01 T01021005  RH  048%=      5-min Rain = 0
KCO2 130626Z 16006KT 10/M01 A3001 RMK A01 T01011005  RH  048%=      5-min Rain = 0
KCO2 130627Z 16006KT 10/M00 A3001 RMK A01 T01011004  RH  048%=      5-min Rain = 0
KCO2 130628Z 16006KT 10/M00 A3001 RMK A01 T01001004  RH  048%=      5-min Rain = 0
KCO2 130629Z 16006KT 10/M00 A3001 RMK A01 T00991004  RH  049%=      5-min Rain = 0
KCO2 130630Z 16007KT 10/M00 A3001 RMK A01 T00991004  RH  049%=      5-min Rain = 0
KCO2 130631Z 16007KT 10/M00 A3001 RMK A01 T00991004  RH  049%=      5-min Rain = 0
KCO2 130632Z 16007KT 10/M00 A3001 RMK A01 T00991004  RH  049%=      5-min Rain = 0
KCO2 130633Z 16007KT 10/M00 A3001 RMK A01 T00991004  RH  049%=      5-min Rain = 0
KCO2 130634Z 17007KT 10/M00 A3001 RMK A01 T01001004  RH  049%=      5-min Rain = 0
KCO2 130635Z 17007KT 10/M00 A3001 RMK A01 T01001004  RH  048%=      5-min Rain = 0
KCO2 130636Z 17008KT 10/M00 A3001 RMK A01 T01011004  RH  048%=      5-min Rain = 0
KCO2 130637Z 17008KT 10/M00 A3001 RMK A01 T01011004  RH  048%=      5-min Rain = 0
KCO2 130638Z 17008KT 10/M00 A3001 RMK A01 T01031004  RH  047%=      5-min Rain = 0
KCO2 130639Z 17008KT 10/M00 A3001 RMK A01 T01041004  RH  047%=      5-min Rain = 0
KCO2 130640Z 17008KT 10/M01 A3001 RMK A01 T01041005  RH  047%=      5-min Rain = 0
KCO2 130641Z 17008KT 11/M01 A3001 RMK A01 T01051005  RH  047%=      5-min Rain = 0
KCO2 130642Z 17007KT 11/M01 A3001 RMK A01 T01051005  RH  046%=      5-min Rain = 0
KCO2 130643Z 17009KT 11/M01 A3001 RMK A01 T01061005  RH  046%=      5-min Rain = 0
KCO2 130644Z 17008KT 11/M01 A3001 RMK A01 T01071005  RH  046%=      5-min Rain = 0
KCO2 130645Z 17008KT 11/M01 A3001 RMK A01 T01071005  RH  046%=      5-min Rain = 0
KCO2 130646Z 17008KT 11/M01 A3001 RMK A01 T01081005  RH  045%=      5-min Rain = 0
KCO2 130647Z 17008KT 11/M01 A3001 RMK A01 T01081005  RH  045%=      5-min Rain = 0
KCO2 130648Z 17008KT 11/M01 A30 RMK A01 T01081005  RH  045%=      5-min Rain = 0
KCO2 130649Z 18008KT 11/M01 A30 RMK A01 T01081005  RH  045%=      5-min Rain = 0
KCO2 130650Z 20005KT 11/M01 A30 RMK A01 T01081005  RH  045%=      5-min Rain = 0
KCO2 130651Z 21005KT 11/M01 A3001 RMK A01 T01081006  RH  045%=      5-min Rain = 0
KCO2 130652Z 21004KT 11/M01 A3001 RMK A01 T01091006  RH  045%=      5-min Rain = 0
KCO2 130653Z 21004KT 11/M01 A3001 RMK A01 T01091006  RH  045%=      5-min Rain = 0
KCO2 130654Z 22003KT 11/M01 A3001 RMK A01 T01091006  RH  045%=      5-min Rain = 0
KCO2 130655Z 22004KT 11/M01 A3001 RMK A01 T01091007  RH  045%=      5-min Rain = 0
KCO2 130656Z 22003KT 11/M01 A3001 RMK A01 T01091007  RH  045%=      5-min Rain = 0
KCO2 130657Z 22003KT 11/M01 A3001 RMK A01 T01091007  RH  045%=      5-min Rain = 0
KCO2 130658Z 22003KT 11/M01 A3001 RMK A01 T01091007  RH  045%=      5-min Rain = 0
KCO2 130659Z 22003KT 11/M01 A3001 RMK A01 T01091007  RH  045%=      5-min Rain = 0
KCO2 130700Z 23002KT 11/M01 A3001 RMK A01 T01091007  RH  045%=      5-min Rain = 0
KCO2 130701Z 23002KT 11/M01 A3001 RMK A01 T01081008  RH  045%=      5-min Rain = 0
KCO2 130702Z 23002KT 11/M01 A3001 RMK A01 T01081008  RH  045%=      5-min Rain = 0
KCO2 130703Z 23002KT 11/M01 A3001 RMK A01 T01081008  RH  045%=      5-min Rain = 0
KCO2 130704Z 23002KT 11/M01 A3001 RMK A01 T01071008  RH  045%=      5-min Rain = 0
KCO2 130705Z 22002KT 11/M01 A3001 RMK A01 T01071008  RH  045%=      5-min Rain = 0
KCO2 130706Z 22002KT 11/M01 A3001 RMK A01 T01071008  RH  045%=      5-min Rain = 0
KCO2 130707Z 22002KT 11/M01 A3001 RMK A01 T01061009  RH  045%=      5-min Rain = 0
KCO2 130708Z 22003KT 11/M01 A3001 RMK A01 T01061009  RH  045%=      5-min Rain = 0
KCO2 130709Z 22003KT 11/M01 A3001 RMK A01 T01061009  RH  045%=      5-min Rain = 0
KCO2 130710Z 22004KT 11/M01 A3001 RMK A01 T01071009  RH  045%=      5-min Rain = 0
KCO2 130711Z 22003KT 11/M01 A3001 RMK A01 T01071010  RH  044%=      5-min Rain = 0
KCO2 130712Z 22003KT 11/M01 A3001 RMK A01 T01081009  RH  044%=      5-min Rain = 0
KCO2 130713Z 22003KT 11/M01 A3001 RMK A01 T01081009  RH  044%=      5-min Rain = 0
KCO2 130714Z 22004KT 11/M01 A3001 RMK A01 T01091009  RH  044%=      5-min Rain = 0
KCO2 130715Z 22004KT 11/M01 A3001 RMK A01 T01101009  RH  044%=      5-min Rain = 0
KCO2 130716Z 22003KT 11/M01 A3001 RMK A01 T01101009  RH  043%=      5-min Rain = 0
KCO2 130717Z 23003KT 11/M01 A3001 RMK A01 T01111009  RH  043%=      5-min Rain = 0
KCO2 130718Z 23003KT 11/M01 A3001 RMK A01 T01121009  RH  043%=      5-min Rain = 0
KCO2 130719Z 23003KT 11/M01 A3001 RMK A01 T01121009  RH  043%=      5-min Rain = 0
KCO2 130720Z 22003KT 11/M01 A3001 RMK A01 T01121008  RH  043%=      5-min Rain = 0
KCO2 130721Z 23003KT 11/M01 A3001 RMK A01 T01121008  RH  043%=      5-min Rain = 0
KCO2 130722Z 22003KT 11/M01 A3001 RMK A01 T01121008  RH  043%=      5-min Rain = 0
KCO2 130723Z 23002KT 11/M01 A3001 RMK A01 T01131007  RH  043%=      5-min Rain = 0
KCO2 130724Z 23003KT 11/M01 A3001 RMK A01 T01131007  RH  044%=      5-min Rain = 0
KCO2 130725Z 22003KT 11/M01 A3001 RMK A01 T01131007  RH  044%=      5-min Rain = 0
KCO2 130726Z 18007KT 11/M01 A3001 RMK A01 T01121007  RH  044%=      5-min Rain = 0
KCO2 130727Z 18007KT 11/M01 A3001 RMK A01 T01121006  RH  044%=      5-min Rain = 0
KCO2 130728Z 18007KT 11/M01 A3001 RMK A01 T01121006  RH  044%=      5-min Rain = 0
KCO2 130729Z 18007KT 11/M01 A3001 RMK A01 T01121006  RH  044%=      5-min Rain = 0
KCO2 130730Z 18007KT 11/M01 A3001 RMK A01 T01111006  RH  044%=      5-min Rain = 0
KCO2 130731Z 18007KT 11/M01 A3001 RMK A01 T01111005  RH  045%=      5-min Rain = 0
KCO2 130732Z 18007KT 11/M01 A3001 RMK A01 T01101005  RH  045%=      5-min Rain = 0
KCO2 130733Z 18008KT 11/M01 A3001 RMK A01 T01101005  RH  045%=      5-min Rain = 0
KCO2 130734Z 18008KT 11/M01 A3001 RMK A01 T01091005  RH  045%=      5-min Rain = 0
KCO2 130735Z 18007KT 11/M00 A3001 RMK A01 T01091004  RH  045%=      5-min Rain = 0
KCO2 130736Z 18007KT 11/M01 A3001 RMK A01 T01091005  RH  045%=      5-min Rain = 0
KCO2 130737Z 18007KT 11/M00 A3001 RMK A01 T01091004  RH  045%=      5-min Rain = 0
KCO2 130738Z 18007KT 11/M00 A3001 RMK A01 T01091004  RH  045%=      5-min Rain = 0
KCO2 130739Z 17007KT 11/M00 A3001 RMK A01 T01091004  RH  045%=      5-min Rain = 0
KCO2 130740Z 17007KT 11/M00 A3001 RMK A01 T01091004  RH  045%=      5-min Rain = 0
KCO2 130741Z 17006KT 11/M00 A30 RMK A01 T01091004  RH  045%=      5-min Rain = 0
KCO2 130742Z 17006KT 11/M01 A30 RMK A01 T01091005  RH  045%=      5-min Rain = 0
KCO2 130743Z 17006KT 11/M01 A30 RMK A01 T01101005  RH  045%=      5-min Rain = 0
KCO2 130744Z 17006KT 11/M01 A30 RMK A01 T01101005  RH  045%=      5-min Rain = 0
KCO2 130745Z 17006KT 11/M01 A30 RMK A01 T01091005  RH  045%=      5-min Rain = 0
KCO2 130746Z 16006KT 11/M01 A30 RMK A01 T01081005  RH  046%=      5-min Rain = 0
KCO2 130747Z 16007KT 11/M01 A30 RMK A01 T01071005  RH  046%=      5-min Rain = 0
KCO2 130748Z 16006KT 11/M01 A30 RMK A01 T01051005  RH  046%=      5-min Rain = 0
KCO2 130749Z 16006KT 10/M01 A30 RMK A01 T01041005  RH  046%=      5-min Rain = 0
KCO2 130750Z 16006KT 10/M01 A30 RMK A01 T01041005  RH  047%=      5-min Rain = 0
KCO2 130751Z 16005KT 10/M01 A30 RMK A01 T01031005  RH  047%=      5-min Rain = 0
KCO2 130752Z 16006KT 10/M01 A30 RMK A01 T01021006  RH  047%=      5-min Rain = 0
KCO2 130753Z 16006KT 10/M01 A30 RMK A01 T01011005  RH  047%=      5-min Rain = 0
KCO2 130754Z 16005KT 10/M01 A30 RMK A01 T01011005  RH  048%=      5-min Rain = 0
KCO2 130755Z 16005KT 10/M01 A30 RMK A01 T01001005  RH  048%=      5-min Rain = 0
KCO2 130756Z 16005KT 10/M01 A30 RMK A01 T01001006  RH  048%=      5-min Rain = 0
KCO2 130757Z 16006KT 10/M01 A30 RMK A01 T00991006  RH  048%=      5-min Rain = 0
KCO2 130758Z 16006KT 10/M01 A30 RMK A01 T00981006  RH  048%=      5-min Rain = 0
KCO2 130759Z 16006KT 10/M01 A30 RMK A01 T00981006  RH  048%=      5-min Rain = 0
KCO2 130800Z 16006KT 10/M01 A30 RMK A01 T00971006  RH  049%=      5-min Rain = 0
KCO2 130801Z 17006KT 10/M01 A30 RMK A01 T00961006  RH  049%=      5-min Rain = 0
KCO2 130802Z 17006KT 10/M01 A30 RMK A01 T00951006  RH  049%=      5-min Rain = 0
KCO2 130803Z 17006KT 10/M01 A30 RMK A01 T00951006  RH  049%=      5-min Rain = 0
KCO2 130804Z 17007KT 10/M01 A30 RMK A01 T00951006  RH  049%=      5-min Rain = 0
KCO2 130805Z 17007KT 10/M01 A30 RMK A01 T00951006  RH  049%=      5-min Rain = 0
KCO2 130806Z 17007KT 10/M01 A30 RMK A01 T00951006  RH  049%=      5-min Rain = 0
KCO2 130807Z 17006KT 10/M01 A30 RMK A01 T00951007  RH  049%=      5-min Rain = 0
KCO2 130808Z 17006KT 10/M01 A30 RMK A01 T00951007  RH  049%=      5-min Rain = 0
KCO2 130809Z 17006KT 10/M01 A30 RMK A01 T00951007  RH  049%=      5-min Rain = 0
KCO2 130810Z 17005KT 10/M01 A30 RMK A01 T00951007  RH  049%=      5-min Rain = 0
KCO2 130811Z 16005KT 09/M01 A30 RMK A01 T00941007  RH  049%=      5-min Rain = 0
KCO2 130812Z 16005KT 09/M01 A30 RMK A01 T00941007  RH  049%=      5-min Rain = 0
KCO2 130813Z 16005KT 09/M01 A30 RMK A01 T00941007  RH  049%=      5-min Rain = 0
KCO2 130814Z 16005KT 09/M01 A30 RMK A01 T00931007  RH  050%=      5-min Rain = 0
KCO2 130815Z 16005KT 09/M01 A30 RMK A01 T00931007  RH  050%=      5-min Rain = 0
KCO2 130816Z 16005KT 09/M01 A30 RMK A01 T00921007  RH  050%=      5-min Rain = 0
KCO2 130817Z 16005KT 09/M01 A30 RMK A01 T00921007  RH  050%=      5-min Rain = 0
KCO2 130818Z 16005KT 09/M01 A30 RMK A01 T00921007  RH  050%=      5-min Rain = 0
KCO2 130819Z 16005KT 09/M01 A30 RMK A01 T00911007  RH  050%=      5-min Rain = 0
KCO2 130820Z 16005KT 09/M01 A30 RMK A01 T00911008  RH  050%=      5-min Rain = 0
KCO2 130821Z 16006KT 09/M01 A30 RMK A01 T00901007  RH  050%=      5-min Rain = 0
KCO2 130822Z 16006KT 09/M01 A30 RMK A01 T00901008  RH  050%=      5-min Rain = 0
KCO2 130823Z 16006KT 09/M01 A30 RMK A01 T00891008  RH  050%=      5-min Rain = 0
KCO2 130824Z 16006KT 09/M01 A30 RMK A01 T00891008  RH  051%=      5-min Rain = 0
KCO2 130825Z 16006KT 09/M01 A30 RMK A01 T00881008  RH  051%=      5-min Rain = 0
KCO2 130826Z 16006KT 09/M01 A30 RMK A01 T00871008  RH  051%=      5-min Rain = 0
KCO2 130827Z 16006KT 09/M01 A30 RMK A01 T00871008  RH  051%=      5-min Rain = 0
KCO2 130828Z 16006KT 09/M01 A30 RMK A01 T00871009  RH  051%=      5-min Rain = 0
KCO2 130829Z 16006KT 09/M01 A30 RMK A01 T00871009  RH  051%=      5-min Rain = 0
KCO2 130830Z 16006KT 09/M01 A30 RMK A01 T00871009  RH  051%=      5-min Rain = 0
KCO2 130831Z 16006KT 09/M01 A30 RMK A01 T00871010  RH  051%=      5-min Rain = 0
KCO2 130832Z 16006KT 09/M01 A2999 RMK A01 T00881010  RH  050%=      5-min Rain = 0
KCO2 130833Z 16006KT 09/M01 A2999 RMK A01 T00881010  RH  050%=      5-min Rain = 0
KCO2 130834Z 17006KT 09/M01 A2999 RMK A01 T00881010  RH  050%=      5-min Rain = 0
KCO2 130835Z 17005KT 09/M01 A2999 RMK A01 T00891011  RH  050%=      5-min Rain = 0
KCO2 130836Z 16005KT 09/M01 A30 RMK A01 T00891011  RH  050%=      5-min Rain = 0
KCO2 130837Z 16005KT 09/M01 A30 RMK A01 T00901011  RH  049%=      5-min Rain = 0
KCO2 130838Z 16005KT 09/M01 A2999 RMK A01 T00901011  RH  049%=      5-min Rain = 0
KCO2 130839Z 16005KT 09/M01 A2999 RMK A01 T00911011  RH  049%=      5-min Rain = 0
KCO2 130840Z 16005KT 09/M01 A2999 RMK A01 T00911012  RH  049%=      5-min Rain = 0
KCO2 130841Z 16005KT 09/M01 A2999 RMK A01 T00911012  RH  048%=      5-min Rain = 0
KCO2 130842Z 16005KT 09/M01 A2999 RMK A01 T00911012  RH  048%=      5-min Rain = 0
KCO2 130843Z 16005KT 09/M01 A2999 RMK A01 T00911012  RH  048%=      5-min Rain = 0
KCO2 130844Z 16005KT 09/M01 A2999 RMK A01 T00911012  RH  049%=      5-min Rain = 0
KCO2 130845Z 16006KT 09/M01 A2999 RMK A01 T00901012  RH  049%=      5-min Rain = 0
KCO2 130846Z 16006KT 09/M01 A2999 RMK A01 T00891012  RH  049%=      5-min Rain = 0
KCO2 130847Z 16006KT 09/M01 A2999 RMK A01 T00891012  RH  049%=      5-min Rain = 0
KCO2 130848Z 16006KT 09/M01 A2999 RMK A01 T00881013  RH  049%=      5-min Rain = 0
KCO2 130849Z 17006KT 09/M01 A2999 RMK A01 T00881013  RH  049%=      5-min Rain = 0
KCO2 130850Z 16006KT 09/M01 A2999 RMK A01 T00881013  RH  049%=      5-min Rain = 0
KCO2 130851Z 17006KT 09/M01 A2999 RMK A01 T00881013  RH  049%=      5-min Rain = 0
KCO2 130852Z 17006KT 09/M01 A2999 RMK A01 T00881012  RH  049%=      5-min Rain = 0
KCO2 130853Z 17006KT 09/M01 A2999 RMK A01 T00881012  RH  049%=      5-min Rain = 0
KCO2 130854Z 17006KT 09/M01 A2999 RMK A01 T00881012  RH  049%=      5-min Rain = 0
KCO2 130855Z 17006KT 09/M01 A2999 RMK A01 T00881012  RH  049%=      5-min Rain = 0
KCO2 130856Z 17006KT 09/M01 A2999 RMK A01 T00881012  RH  049%=      5-min Rain = 0
KCO2 130857Z 17006KT 09/M01 A2999 RMK A01 T00881012  RH  049%=      5-min Rain = 0
KCO2 130858Z 17006KT 09/M01 A2999 RMK A01 T00881013  RH  049%=      5-min Rain = 0
KCO2 130859Z 17006KT 09/M01 A2999 RMK A01 T00881013  RH  049%=      5-min Rain = 0
KCO2 130900Z 17006KT 09/M01 A2999 RMK A01 T00881012  RH  049%=      5-min Rain = 0
KCO2 130901Z 17006KT 09/M01 A2998 RMK A01 T00881012  RH  049%=      5-min Rain = 0
KCO2 130902Z 17007KT 09/M01 A2998 RMK A01 T00881012  RH  049%=      5-min Rain = 0
KCO2 130903Z 17007KT 09/M01 A2998 RMK A01 T00881012  RH  049%=      5-min Rain = 0
KCO2 130904Z 17007KT 09/M01 A2998 RMK A01 T00881012  RH  049%=      5-min Rain = 0
KCO2 130905Z 17007KT 09/M01 A2998 RMK A01 T00881012  RH  049%=      5-min Rain = 0
KCO2 130906Z 17007KT 09/M01 A2998 RMK A01 T00881012  RH  049%=      5-min Rain = 0
KCO2 130907Z 17007KT 09/M01 A2998 RMK A01 T00881013  RH  049%=      5-min Rain = 0
KCO2 130908Z 17007KT 09/M01 A2998 RMK A01 T00881013  RH  049%=      5-min Rain = 0
KCO2 130909Z 18007KT 09/M01 A2998 RMK A01 T00881013  RH  049%=      5-min Rain = 0
KCO2 130910Z 17007KT 09/M01 A2998 RMK A01 T00891013  RH  049%=      5-min Rain = 0
KCO2 130911Z 18007KT 09/M01 A2998 RMK A01 T00891012  RH  049%=      5-min Rain = 0
KCO2 130912Z 18007KT 09/M01 A2998 RMK A01 T00881013  RH  049%=      5-min Rain = 0
KCO2 130913Z 18007KT 09/M01 A2998 RMK A01 T00891012  RH  049%=      5-min Rain = 0
KCO2 130914Z 18007KT 09/M01 A2998 RMK A01 T00881013  RH  049%=      5-min Rain = 0
KCO2 130915Z 18007KT 09/M01 A2998 RMK A01 T00881013  RH  049%=      5-min Rain = 0
KCO2 130916Z 18007KT 09/M01 A2998 RMK A01 T00881013  RH  049%=      5-min Rain = 0
KCO2 130917Z 18007KT 09/M01 A2998 RMK A01 T00871013  RH  049%=      5-min Rain = 0
KCO2 130918Z 18007KT 09/M01 A2998 RMK A01 T00871013  RH  049%=      5-min Rain = 0
KCO2 130919Z 18007KT 09/M01 A2998 RMK A01 T00871013  RH  049%=      5-min Rain = 0
KCO2 130920Z 18007KT 09/M01 A2998 RMK A01 T00871013  RH  049%=      5-min Rain = 0
KCO2 130921Z 18007KT 09/M01 A2998 RMK A01 T00871013  RH  049%=      5-min Rain = 0
KCO2 130922Z 18006KT 09/M01 A2998 RMK A01 T00871013  RH  049%=      5-min Rain = 0
KCO2 130923Z 18006KT 09/M01 A2998 RMK A01 T00871013  RH  049%=      5-min Rain = 0
KCO2 130924Z 18006KT 09/M01 A2998 RMK A01 T00871013  RH  049%=      5-min Rain = 0
KCO2 130925Z 18007KT 09/M01 A2998 RMK A01 T00871013  RH  049%=      5-min Rain = 0
KCO2 130926Z 18006KT 09/M01 A2998 RMK A01 T00871013  RH  049%=      5-min Rain = 0
KCO2 130927Z 17006KT 09/M01 A2998 RMK A01 T00871013  RH  050%=      5-min Rain = 0
KCO2 130928Z 18007KT 09/M01 A2998 RMK A01 T00871013  RH  050%=      5-min Rain = 0
KCO2 130929Z 17006KT 09/M01 A2998 RMK A01 T00871013  RH  049%=      5-min Rain = 0
KCO2 130930Z 17006KT 09/M01 A2998 RMK A01 T00871013  RH  049%=      5-min Rain = 0
KCO2 130931Z 17006KT 09/M01 A2998 RMK A01 T00871013  RH  049%=      5-min Rain = 0
KCO2 130932Z 17006KT 09/M01 A2998 RMK A01 T00871013  RH  049%=      5-min Rain = 0
KCO2 130933Z 17006KT 09/M01 A2998 RMK A01 T00881013  RH  049%=      5-min Rain = 0
KCO2 130934Z 17005KT 09/M01 A2997 RMK A01 T00891013  RH  049%=      5-min Rain = 0
KCO2 130935Z 17005KT 09/M01 A2997 RMK A01 T00891013  RH  049%=      5-min Rain = 0
KCO2 130936Z 17005KT 09/M01 A2997 RMK A01 T00891013  RH  049%=      5-min Rain = 0
KCO2 130937Z 17005KT 09/M01 A2997 RMK A01 T00891013  RH  049%=      5-min Rain = 0
KCO2 130938Z 17005KT 09/M01 A2997 RMK A01 T00901012  RH  049%=      5-min Rain = 0
KCO2 130939Z 17005KT 09/M01 A2997 RMK A01 T00901012  RH  049%=      5-min Rain = 0
KCO2 130940Z 17006KT 09/M01 A2997 RMK A01 T00891013  RH  049%=      5-min Rain = 0
KCO2 130941Z 17006KT 09/M01 A2997 RMK A01 T00881013  RH  049%=      5-min Rain = 0
KCO2 130942Z 17006KT 09/M01 A2997 RMK A01 T00881012  RH  049%=      5-min Rain = 0
KCO2 130943Z 17006KT 09/M01 A2998 RMK A01 T00871013  RH  050%=      5-min Rain = 0
KCO2 130944Z 17006KT 09/M01 A2998 RMK A01 T00871013  RH  050%=      5-min Rain = 0
KCO2 130945Z 17006KT 09/M01 A2998 RMK A01 T00861012  RH  050%=      5-min Rain = 0
KCO2 130946Z 17006KT 09/M01 A2998 RMK A01 T00861012  RH  050%=      5-min Rain = 0
KCO2 130947Z 17006KT 09/M01 A2998 RMK A01 T00851013  RH  050%=      5-min Rain = 0
KCO2 130948Z 16005KT 09/M01 A2998 RMK A01 T00851012  RH  050%=      5-min Rain = 0
KCO2 130949Z 16005KT 09/M01 A2998 RMK A01 T00851013  RH  050%=      5-min Rain = 0
KCO2 130950Z 16005KT 09/M01 A2998 RMK A01 T00851012  RH  050%=      5-min Rain = 0
KCO2 130951Z 16005KT 09/M01 A2998 RMK A01 T00851012  RH  050%=      5-min Rain = 0
KCO2 130952Z 16005KT 09/M01 A2998 RMK A01 T00851012  RH  050%=      5-min Rain = 0
KCO2 130953Z 16005KT 09/M01 A2998 RMK A01 T00851012  RH  050%=      5-min Rain = 0
KCO2 130954Z 16006KT 09/M01 A2998 RMK A01 T00851012  RH  050%=      5-min Rain = 0
KCO2 130955Z 16007KT 09/M01 A2998 RMK A01 T00851012  RH  051%=      5-min Rain = 0
KCO2 130956Z 17007KT 08/M01 A2998 RMK A01 T00841012  RH  051%=      5-min Rain = 0
KCO2 130957Z 17008KT 08/M01 A2998 RMK A01 T00831012  RH  051%=      5-min Rain = 0
KCO2 130958Z 17008KT 08/M01 A2998 RMK A01 T00831012  RH  051%=      5-min Rain = 0
KCO2 130959Z 17008KT 08/M01 A2998 RMK A01 T00831012  RH  051%=      5-min Rain = 0
KCO2 131000Z 17008KT 08/M01 A2998 RMK A01 T00841011  RH  051%=      5-min Rain = 0
KCO2 131001Z 17007KT 09/M01 A2998 RMK A01 T00851011  RH  051%=      5-min Rain = 0
KCO2 131002Z 17007KT 09/M01 A2998 RMK A01 T00861010  RH  051%=      5-min Rain = 0
KCO2 131003Z 17007KT 09/M01 A2998 RMK A01 T00871010  RH  050%=      5-min Rain = 0
KCO2 131004Z 17007KT 09/M01 A2998 RMK A01 T00881010  RH  050%=      5-min Rain = 0
KCO2 131005Z 17006KT 09/M01 A2998 RMK A01 T00901009  RH  050%=      5-min Rain = 0
KCO2 131006Z 17006KT 09/M01 A2998 RMK A01 T00901009  RH  050%=      5-min Rain = 0
KCO2 131007Z 17006KT 09/M01 A2998 RMK A01 T00901010  RH  050%=      5-min Rain = 0
KCO2 131008Z 17006KT 09/M01 A2998 RMK A01 T00901009  RH  050%=      5-min Rain = 0
KCO2 131009Z 17006KT 09/M01 A2998 RMK A01 T00901009  RH  050%=      5-min Rain = 0
KCO2 131010Z 17006KT 09/M01 A2998 RMK A01 T00901009  RH  050%=      5-min Rain = 0
KCO2 131011Z 17006KT 09/M01 A2998 RMK A01 T00891009  RH  050%=      5-min Rain = 0
KCO2 131012Z 17006KT 09/M01 A2998 RMK A01 T00891009  RH  050%=      5-min Rain = 0
KCO2 131013Z 17006KT 09/M01 A2998 RMK A01 T00881009  RH  051%=      5-min Rain = 0
KCO2 131014Z 17006KT 09/M01 A2998 RMK A01 T00871009  RH  051%=      5-min Rain = 0
KCO2 131015Z 16006KT 09/M01 A2998 RMK A01 T00871008  RH  051%=      5-min Rain = 0
KCO2 131016Z 16006KT 09/M01 A2998 RMK A01 T00871008  RH  051%=      5-min Rain = 0
KCO2 131017Z 16006KT 09/M01 A2998 RMK A01 T00861007  RH  052%=      5-min Rain = 0
KCO2 131018Z 16006KT 09/M01 A2998 RMK A01 T00861007  RH  052%=      5-min Rain = 0
KCO2 131019Z 16006KT 09/M01 A2998 RMK A01 T00851008  RH  052%=      5-min Rain = 0
KCO2 131020Z 16006KT 08/M01 A2998 RMK A01 T00841008  RH  052%=      5-min Rain = 0
KCO2 131021Z 16005KT 08/M01 A2998 RMK A01 T00841008  RH  052%=      5-min Rain = 0
KCO2 131022Z 16006KT 08/M01 A2998 RMK A01 T00841008  RH  053%=      5-min Rain = 0
KCO2 131023Z 16005KT 08/M01 A2998 RMK A01 T00831008  RH  053%=      5-min Rain = 0
KCO2 131024Z 16006KT 08/M01 A2998 RMK A01 T00831008  RH  053%=      5-min Rain = 0
KCO2 131025Z 16006KT 08/M01 A2998 RMK A01 T00821008  RH  053%=      5-min Rain = 0
KCO2 131026Z 16006KT 08/M01 A2998 RMK A01 T00821007  RH  053%=      5-min Rain = 0
KCO2 131027Z 16006KT 08/M01 A2998 RMK A01 T00811007  RH  054%=      5-min Rain = 0
KCO2 131028Z 16007KT 08/M01 A2998 RMK A01 T00811007  RH  054%=      5-min Rain = 0
KCO2 131029Z 16007KT 08/M01 A2998 RMK A01 T00811007  RH  054%=      5-min Rain = 0
KCO2 131030Z 16007KT 08/M01 A2998 RMK A01 T00821006  RH  054%=      5-min Rain = 0
KCO2 131031Z 16006KT 08/M01 A2998 RMK A01 T00821006  RH  054%=      5-min Rain = 0
KCO2 131032Z 16006KT 08/M01 A2998 RMK A01 T00821006  RH  054%=      5-min Rain = 0
KCO2 131033Z 16006KT 08/M01 A2998 RMK A01 T00821006  RH  054%=      5-min Rain = 0
KCO2 131034Z 16005KT 08/M01 A2999 RMK A01 T00831006  RH  054%=      5-min Rain = 0
KCO2 131035Z 16005KT 08/M01 A2999 RMK A01 T00831005  RH  054%=      5-min Rain = 0
KCO2 131036Z 16006KT 08/M01 A2999 RMK A01 T00831006  RH  054%=      5-min Rain = 0
KCO2 131037Z 16006KT 08/M01 A2999 RMK A01 T00831006  RH  054%=      5-min Rain = 0
KCO2 131038Z 16006KT 08/M01 A2998 RMK A01 T00831006  RH  054%=      5-min Rain = 0
KCO2 131039Z 17007KT 08/M01 A2998 RMK A01 T00821006  RH  054%=      5-min Rain = 0
KCO2 131040Z 17007KT 08/M01 A2999 RMK A01 T00821006  RH  054%=      5-min Rain = 0
KCO2 131041Z 17006KT 08/M01 A2999 RMK A01 T00811005  RH  054%=      5-min Rain = 0
KCO2 131042Z 17006KT 08/M01 A2999 RMK A01 T00811005  RH  055%=      5-min Rain = 0
KCO2 131043Z 17007KT 08/M01 A2999 RMK A01 T00811005  RH  055%=      5-min Rain = 0
KCO2 131044Z 17007KT 08/M00 A2999 RMK A01 T00811004  RH  055%=      5-min Rain = 0
KCO2 131045Z 17008KT 08/M00 A2999 RMK A01 T00811004  RH  055%=      5-min Rain = 0
KCO2 131046Z 18008KT 08/M00 A2999 RMK A01 T00821003  RH  055%=      5-min Rain = 0
KCO2 131047Z 18008KT 08/M00 A2998 RMK A01 T00821003  RH  055%=      5-min Rain = 0
KCO2 131048Z 18008KT 08/M00 A2998 RMK A01 T00821003  RH  055%=      5-min Rain = 0
KCO2 131049Z 18008KT 08/M00 A2998 RMK A01 T00821002  RH  055%=      5-min Rain = 0
KCO2 131050Z 18007KT 08/M00 A2998 RMK A01 T00831002  RH  055%=      5-min Rain = 0
KCO2 131051Z 18007KT 08/M00 A2998 RMK A01 T00831001  RH  055%=      5-min Rain = 0
KCO2 131052Z 17007KT 08/M00 A2998 RMK A01 T00821001  RH  056%=      5-min Rain = 0
KCO2 131053Z 17007KT 08/00 A2999 RMK A01 T008200-0  RH  056%=      5-min Rain = 0
KCO2 131054Z 17006KT 08/00 A2999 RMK A01 T008200-0  RH  056%=      5-min Rain = 0
KCO2 131055Z 18006KT 08/00 A2999 RMK A01 T008200-0  RH  056%=      5-min Rain = 0
KCO2 131056Z 18006KT 08/00 A2999 RMK A01 T00820000  RH  056%=      5-min Rain = 0
KCO2 131057Z 17006KT 08/00 A2999 RMK A01 T00810000  RH  056%=      5-min Rain = 0
KCO2 131058Z 17006KT 08/00 A2999 RMK A01 T00810000  RH  057%=      5-min Rain = 0
KCO2 131059Z 17006KT 08/00 A2999 RMK A01 T00810001  RH  057%=      5-min Rain = 0
KCO2 131100Z 17006KT 08/00 A2999 RMK A01 T00810001  RH  057%=      5-min Rain = 0
KCO2 131101Z 18006KT 08/00 A2999 RMK A01 T00810001  RH  057%=      5-min Rain = 0
KCO2 131102Z 18006KT 08/00 A2999 RMK A01 T00810001  RH  057%=      5-min Rain = 0
KCO2 131103Z 18007KT 08/00 A2999 RMK A01 T00800001  RH  058%=      5-min Rain = 0
KCO2 131104Z 17007KT 08/00 A2999 RMK A01 T00800002  RH  058%=      5-min Rain = 0
KCO2 131105Z 18007KT 08/00 A2999 RMK A01 T00800002  RH  058%=      5-min Rain = 0
KCO2 131106Z 18007KT 08/00 A2999 RMK A01 T00790003  RH  058%=      5-min Rain = 0
KCO2 131107Z 18007KT 08/00 A2999 RMK A01 T00790003  RH  058%=      5-min Rain = 0
KCO2 131108Z 18007KT 08/00 A2999 RMK A01 T00790003  RH  059%=      5-min Rain = 0
KCO2 131109Z 18007KT 08/00 A2999 RMK A01 T00790004  RH  059%=      5-min Rain = 0
KCO2 131110Z 18006KT 08/00 A2999 RMK A01 T00790004  RH  059%=      5-min Rain = 0
KCO2 131111Z 18006KT 08/00 A2999 RMK A01 T00790004  RH  059%=      5-min Rain = 0
KCO2 131112Z 18006KT 08/00 A2999 RMK A01 T00790004  RH  059%=      5-min Rain = 0
KCO2 131113Z 18006KT 08/00 A2999 RMK A01 T00790004  RH  059%=      5-min Rain = 0
KCO2 131114Z 18006KT 08/00 A2999 RMK A01 T00780004  RH  059%=      5-min Rain = 0
KCO2 131115Z 18006KT 08/00 A2999 RMK A01 T00770004  RH  060%=      5-min Rain = 0
KCO2 131116Z 18006KT 08/00 A2999 RMK A01 T00770004  RH  060%=      5-min Rain = 0
KCO2 131117Z 18007KT 08/00 A2999 RMK A01 T00760004  RH  060%=      5-min Rain = 0
KCO2 131118Z 18007KT 08/00 A2999 RMK A01 T00750004  RH  060%=      5-min Rain = 0
KCO2 131119Z 19006KT 08/01 A2999 RMK A01 T00750005  RH  061%=      5-min Rain = 0
KCO2 131120Z 19006KT 08/01 A2999 RMK A01 T00750005  RH  061%=      5-min Rain = 0
KCO2 131121Z 18006KT 08/01 A2999 RMK A01 T00750006  RH  061%=      5-min Rain = 0
KCO2 131122Z 18006KT 08/01 A2999 RMK A01 T00750006  RH  061%=      5-min Rain = 0
KCO2 131123Z 19006KT 08/01 A2999 RMK A01 T00760007  RH  061%=      5-min Rain = 0
KCO2 131124Z 19006KT 08/01 A2999 RMK A01 T00770007  RH  061%=      5-min Rain = 0
KCO2 131125Z 18006KT 08/01 A2999 RMK A01 T00770008  RH  061%=      5-min Rain = 0
KCO2 131126Z 19006KT 08/01 A2999 RMK A01 T00770008  RH  061%=      5-min Rain = 0
KCO2 131127Z 18006KT 08/01 A2999 RMK A01 T00770008  RH  061%=      5-min Rain = 0
KCO2 131128Z 18006KT 08/01 A2999 RMK A01 T00780008  RH  061%=      5-min Rain = 0
KCO2 131129Z 18006KT 08/01 A2999 RMK A01 T00770008  RH  062%=      5-min Rain = 0
KCO2 131130Z 18006KT 08/01 A2999 RMK A01 T00770008  RH  062%=      5-min Rain = 0
KCO2 131131Z 18005KT 08/01 A2999 RMK A01 T00770009  RH  062%=      5-min Rain = 0
KCO2 131132Z 18005KT 08/01 A2999 RMK A01 T00760008  RH  062%=      5-min Rain = 0
KCO2 131133Z 18005KT 08/01 A2999 RMK A01 T00760008  RH  062%=      5-min Rain = 0
KCO2 131134Z 17005KT 08/01 A2999 RMK A01 T00760008  RH  062%=      5-min Rain = 0
KCO2 131135Z 17005KT 08/01 A2999 RMK A01 T00750008  RH  063%=      5-min Rain = 0
KCO2 131136Z 17005KT 07/01 A2999 RMK A01 T00740008  RH  063%=      5-min Rain = 0
KCO2 131137Z 17005KT 07/01 A2999 RMK A01 T00740008  RH  063%=      5-min Rain = 0
KCO2 131138Z 17006KT 07/01 A2999 RMK A01 T00730008  RH  063%=      5-min Rain = 0
KCO2 131139Z 17005KT 07/01 A2999 RMK A01 T00720008  RH  063%=      5-min Rain = 0
KCO2 131140Z 17005KT 07/01 A2999 RMK A01 T00720007  RH  064%=      5-min Rain = 0
KCO2 131141Z 17005KT 07/01 A2999 RMK A01 T00720008  RH  064%=      5-min Rain = 0
KCO2 131142Z 17004KT 07/01 A2999 RMK A01 T00710008  RH  064%=      5-min Rain = 0
KCO2 131143Z 17004KT 07/01 A2999 RMK A01 T00710008  RH  064%=      5-min Rain = 0
KCO2 131144Z 17004KT 07/01 A2999 RMK A01 T00720009  RH  064%=      5-min Rain = 0
KCO2 131145Z 17004KT 07/01 A2999 RMK A01 T00720009  RH  064%=      5-min Rain = 0
KCO2 131146Z 17004KT 07/01 A30 RMK A01 T00730009  RH  064%=      5-min Rain = 0
KCO2 131147Z 17004KT 07/01 A30 RMK A01 T00730009  RH  064%=      5-min Rain = 0
KCO2 131148Z 16004KT 07/01 A30 RMK A01 T00740008  RH  063%=      5-min Rain = 0
KCO2 131149Z 17004KT 07/01 A30 RMK A01 T00730008  RH  063%=      5-min Rain = 0
KCO2 131150Z 17004KT 07/01 A30 RMK A01 T00730007  RH  063%=      5-min Rain = 0
KCO2 131151Z 17005KT 07/01 A30 RMK A01 T00720007  RH  063%=      5-min Rain = 0
KCO2 131152Z 17005KT 07/01 A30 RMK A01 T00710007  RH  064%=      5-min Rain = 0
KCO2 131153Z 17005KT 07/01 A30 RMK A01 T00710007  RH  064%=      5-min Rain = 0
KCO2 131154Z 17005KT 07/01 A30 RMK A01 T00710008  RH  064%=      5-min Rain = 0
KCO2 131155Z 17004KT 07/01 A30 RMK A01 T00710009  RH  064%=      5-min Rain = 0
KCO2 131156Z 17004KT 07/01 A30 RMK A01 T00720009  RH  064%=      5-min Rain = 0
KCO2 131157Z 16004KT 07/01 A30 RMK A01 T00730010  RH  064%=      5-min Rain = 0
KCO2 131158Z 17004KT 07/01 A30 RMK A01 T00740010  RH  064%=      5-min Rain = 0
KCO2 131159Z 17004KT 08/01 A30 RMK A01 T00750010  RH  064%=      5-min Rain = 0
KCO2 131200Z 17004KT 08/01 A30 RMK A01 T00750010  RH  063%=      5-min Rain = 0
KCO2 131201Z 16005KT 08/01 A30 RMK A01 T00750010  RH  063%=      5-min Rain = 0
KCO2 131202Z 17005KT 08/01 A30 RMK A01 T00750010  RH  063%=      5-min Rain = 0
KCO2 131203Z 16004KT 08/01 A30 RMK A01 T00750010  RH  063%=      5-min Rain = 0
KCO2 131204Z 16005KT 07/01 A30 RMK A01 T00740010  RH  064%=      5-min Rain = 0
KCO2 131205Z 16005KT 07/01 A30 RMK A01 T00740011  RH  064%=      5-min Rain = 0
KCO2 131206Z 16004KT 07/01 A30 RMK A01 T00740011  RH  064%=      5-min Rain = 0
KCO2 131207Z 16004KT 07/01 A30 RMK A01 T00740011  RH  065%=      5-min Rain = 0
KCO2 131208Z 15004KT 07/01 A30 RMK A01 T00740012  RH  065%=      5-min Rain = 0
KCO2 131209Z 15004KT 08/01 A30 RMK A01 T00750013  RH  065%=      5-min Rain = 0
KCO2 131210Z 15004KT 08/01 A30 RMK A01 T00760012  RH  064%=      5-min Rain = 0
KCO2 131211Z 14004KT 08/01 A30 RMK A01 T00770013  RH  064%=      5-min Rain = 0
KCO2 131212Z 14004KT 08/01 A30 RMK A01 T00790013  RH  063%=      5-min Rain = 0
KCO2 131213Z 14004KT 08/01 A30 RMK A01 T00790013  RH  063%=      5-min Rain = 0
KCO2 131214Z 14004KT 08/01 A30 RMK A01 T00800013  RH  063%=      5-min Rain = 0
KCO2 131215Z 13004KT 08/01 A30 RMK A01 T00800013  RH  063%=      5-min Rain = 0
KCO2 131216Z 14004KT 08/01 A30 RMK A01 T00800013  RH  063%=      5-min Rain = 0
KCO2 131217Z 14004KT 08/01 A30 RMK A01 T00800013  RH  063%=      5-min Rain = 0
KCO2 131218Z 14004KT 08/01 A30 RMK A01 T00780012  RH  063%=      5-min Rain = 0
KCO2 131219Z 12004KT 08/01 A30 RMK A01 T00760011  RH  064%=      5-min Rain = 0
KCO2 131220Z 12004KT 07/01 A30 RMK A01 T00740011  RH  064%=      5-min Rain = 0
KCO2 131221Z 13004KT 07/01 A30 RMK A01 T00720010  RH  064%=      5-min Rain = 0
KCO2 131222Z 13004KT 07/01 A30 RMK A01 T00710009  RH  065%=      5-min Rain = 0
KCO2 131223Z 13004KT 07/01 A30 RMK A01 T00690008  RH  065%=      5-min Rain = 0
KCO2 131224Z 12004KT 07/01 A30 RMK A01 T00690008  RH  065%=      5-min Rain = 0
KCO2 131225Z 12004KT 07/01 A30 RMK A01 T00680008  RH  066%=      5-min Rain = 0
KCO2 131226Z 11005KT 07/01 A30 RMK A01 T00680009  RH  066%=      5-min Rain = 0
KCO2 131227Z 11005KT 07/01 A30 RMK A01 T00680009  RH  066%=      5-min Rain = 0
KCO2 131228Z 11005KT 07/01 A30 RMK A01 T00690009  RH  066%=      5-min Rain = 0
KCO2 131229Z 11006KT 07/01 A30 RMK A01 T00690009  RH  066%=      5-min Rain = 0
KCO2 131230Z 11006KT 07/01 A30 RMK A01 T00690009  RH  066%=      5-min Rain = 0
KCO2 131231Z 11006KT 07/01 A30 RMK A01 T00680008  RH  066%=      5-min Rain = 0
KCO2 131232Z 11006KT 07/01 A30 RMK A01 T00670008  RH  066%=      5-min Rain = 0
KCO2 131233Z 11006KT 07/01 A30 RMK A01 T00670008  RH  066%=      5-min Rain = 0
KCO2 131234Z 11006KT 07/01 A30 RMK A01 T00670009  RH  066%=      5-min Rain = 0
KCO2 131235Z 11006KT 07/01 A30 RMK A01 T00660008  RH  066%=      5-min Rain = 0
KCO2 131236Z 11006KT 07/01 A30 RMK A01 T00670009  RH  067%=      5-min Rain = 0
KCO2 131237Z 12006KT 07/01 A30 RMK A01 T00660008  RH  067%=      5-min Rain = 0
KCO2 131238Z 12006KT 07/01 A30 RMK A01 T00660008  RH  067%=      5-min Rain = 0
KCO2 131239Z 12006KT 07/01 A30 RMK A01 T00650008  RH  067%=      5-min Rain = 0
KCO2 131240Z 12006KT 07/01 A30 RMK A01 T00650008  RH  067%=      5-min Rain = 0
KCO2 131241Z 12006KT 07/01 A30 RMK A01 T00650008  RH  067%=      5-min Rain = 0
KCO2 131242Z 12006KT 06/01 A30 RMK A01 T00640008  RH  067%=      5-min Rain = 0
KCO2 131243Z 12006KT 06/01 A30 RMK A01 T00640009  RH  067%=      5-min Rain = 0
KCO2 131244Z 12006KT 07/01 A30 RMK A01 T00650009  RH  067%=      5-min Rain = 0
KCO2 131245Z 12006KT 07/01 A30 RMK A01 T00650009  RH  067%=      5-min Rain = 0
KCO2 131246Z 12006KT 07/01 A30 RMK A01 T00660009  RH  067%=      5-min Rain = 0
KCO2 131247Z 12006KT 07/01 A30 RMK A01 T00660009  RH  067%=      5-min Rain = 0
KCO2 131248Z 13006KT 07/01 A30 RMK A01 T00660009  RH  067%=      5-min Rain = 0
KCO2 131249Z 13006KT 07/01 A30 RMK A01 T00660009  RH  067%=      5-min Rain = 0
KCO2 131250Z 12006KT 07/01 A30 RMK A01 T00660009  RH  067%=      5-min Rain = 0
KCO2 131251Z 12006KT 07/01 A30 RMK A01 T00660010  RH  067%=      5-min Rain = 0
KCO2 131252Z 12006KT 07/01 A30 RMK A01 T00660010  RH  067%=      5-min Rain = 0
KCO2 131253Z 12006KT 07/01 A30 RMK A01 T00670010  RH  067%=      5-min Rain = 0
KCO2 131254Z 12006KT 07/01 A3001 RMK A01 T00680011  RH  067%=      5-min Rain = 0
KCO2 131255Z 11005KT 07/01 A3001 RMK A01 T00690011  RH  066%=      5-min Rain = 0
KCO2 131256Z 11005KT 07/01 A3001 RMK A01 T00690009  RH  066%=      5-min Rain = 0
KCO2 131257Z 11004KT 07/01 A3001 RMK A01 T00680009  RH  066%=      5-min Rain = 0
KCO2 131258Z 11005KT 07/01 A3001 RMK A01 T00680009  RH  066%=      5-min Rain = 0
KCO2 131259Z 12005KT 07/01 A3001 RMK A01 T00670009  RH  067%=      5-min Rain = 0
KCO2 131300Z 13006KT 07/01 A3001 RMK A01 T00670009  RH  067%=      5-min Rain = 0
KCO2 131301Z 13006KT 07/01 A3001 RMK A01 T00670009  RH  067%=      5-min Rain = 0
KCO2 131302Z 14006KT 07/01 A3001 RMK A01 T00670009  RH  067%=      5-min Rain = 0
KCO2 131303Z 14006KT 07/01 A3001 RMK A01 T00670010  RH  067%=      5-min Rain = 0
KCO2 131304Z 14006KT 07/01 A3001 RMK A01 T00670010  RH  067%=      5-min Rain = 0
KCO2 131305Z 14006KT 07/01 A3001 RMK A01 T00670011  RH  067%=      5-min Rain = 0
KCO2 131306Z 14005KT 07/01 A3001 RMK A01 T00680011  RH  067%=      5-min Rain = 0
KCO2 131307Z 14005KT 07/01 A3001 RMK A01 T00690012  RH  067%=      5-min Rain = 0
KCO2 131308Z 14005KT 07/01 A3001 RMK A01 T00710012  RH  066%=      5-min Rain = 0
KCO2 131309Z 14005KT 07/01 A3001 RMK A01 T00720013  RH  066%=      5-min Rain = 0
KCO2 131310Z 14005KT 07/01 A3001 RMK A01 T00730013  RH  066%=      5-min Rain = 0
KCO2 131311Z 14005KT 07/01 A3001 RMK A01 T00740013  RH  065%=      5-min Rain = 0
KCO2 131312Z 13005KT 08/01 A3001 RMK A01 T00760014  RH  065%=      5-min Rain = 0
KCO2 131313Z 13005KT 08/01 A3001 RMK A01 T00760014  RH  064%=      5-min Rain = 0
KCO2 131314Z 13005KT 08/01 A3001 RMK A01 T00780014  RH  064%=      5-min Rain = 0
KCO2 131315Z 12005KT 08/02 A3001 RMK A01 T00780015  RH  064%=      5-min Rain = 0
KCO2 131316Z 12005KT 08/02 A3002 RMK A01 T00800016  RH  064%=      5-min Rain = 0
KCO2 131317Z 10004KT 08/02 A3002 RMK A01 T00820016  RH  063%=      5-min Rain = 0
KCO2 131318Z 10004KT 08/02 A3002 RMK A01 T00830016  RH  062%=      5-min Rain = 0
KCO2 131319Z 10004KT 08/02 A3002 RMK A01 T00840015  RH  062%=      5-min Rain = 0
KCO2 131320Z 10004KT 08/02 A3002 RMK A01 T00840015  RH  062%=      5-min Rain = 0
KCO2 131321Z 11004KT 08/02 A3002 RMK A01 T00840016  RH  062%=      5-min Rain = 0
KCO2 131322Z 12004KT 09/02 A3002 RMK A01 T00860016  RH  062%=      5-min Rain = 0
KCO2 131323Z 12004KT 09/02 A3002 RMK A01 T00870017  RH  061%=      5-min Rain = 0
KCO2 131324Z 12004KT 09/02 A3002 RMK A01 T00880017  RH  061%=      5-min Rain = 0
KCO2 131325Z 13004KT 09/02 A3002 RMK A01 T00890017  RH  061%=      5-min Rain = 0
KCO2 131326Z 13004KT 09/02 A3002 RMK A01 T00900018  RH  061%=      5-min Rain = 0
KCO2 131327Z 12004KT 09/02 A3002 RMK A01 T00910018  RH  060%=      5-min Rain = 0
KCO2 131328Z 12004KT 09/02 A3002 RMK A01 T00920019  RH  060%=      5-min Rain = 0
KCO2 131329Z 12004KT 09/02 A3002 RMK A01 T00930019  RH  060%=      5-min Rain = 0
KCO2 131330Z 12004KT 09/02 A3002 RMK A01 T00940019  RH  059%=      5-min Rain = 0
KCO2 131331Z 12004KT 10/02 A3002 RMK A01 T00950019  RH  059%=      5-min Rain = 0
KCO2 131332Z 12004KT 10/02 A3002 RMK A01 T00960020  RH  059%=      5-min Rain = 0
KCO2 131333Z 12004KT 10/02 A3002 RMK A01 T00970021  RH  059%=      5-min Rain = 0
KCO2 131334Z 13004KT 10/02 A3002 RMK A01 T00980021  RH  059%=      5-min Rain = 0
KCO2 131335Z 13004KT 10/02 A3002 RMK A01 T00990021  RH  058%=      5-min Rain = 0
KCO2 131336Z 14003KT 10/02 A3002 RMK A01 T01000022  RH  058%=      5-min Rain = 0
KCO2 131337Z 14004KT 10/02 A3002 RMK A01 T01020022  RH  058%=      5-min Rain = 0
KCO2 131338Z 14003KT 10/02 A3002 RMK A01 T01030022  RH  057%=      5-min Rain = 0
KCO2 131339Z 14004KT 10/02 A3002 RMK A01 T01040022  RH  057%=      5-min Rain = 0
KCO2 131340Z 15004KT 11/02 A3002 RMK A01 T01050023  RH  057%=      5-min Rain = 0
KCO2 131341Z 14004KT 11/02 A3002 RMK A01 T01060023  RH  056%=      5-min Rain = 0
KCO2 131342Z 15004KT 11/02 A3002 RMK A01 T01070023  RH  056%=      5-min Rain = 0
KCO2 131343Z 15004KT 11/02 A3002 RMK A01 T01080023  RH  056%=      5-min Rain = 0
KCO2 131344Z 14003KT 11/02 A3002 RMK A01 T01090024  RH  056%=      5-min Rain = 0
KCO2 131345Z 14003KT 11/02 A3002 RMK A01 T01100024  RH  055%=      5-min Rain = 0
KCO2 131346Z 14003KT 11/02 A3002 RMK A01 T01110024  RH  055%=      5-min Rain = 0
KCO2 131347Z 13002KT 11/02 A3002 RMK A01 T01120024  RH  055%=      5-min Rain = 0
KCO2 131348Z 14003KT 11/03 A3002 RMK A01 T01130025  RH  054%=      5-min Rain = 0
KCO2 131349Z 14003KT 12/03 A3002 RMK A01 T01150026  RH  054%=      5-min Rain = 0
KCO2 131350Z 14003KT 12/03 A3002 RMK A01 T01160025  RH  054%=      5-min Rain = 0
KCO2 131351Z 15003KT 12/03 A3002 RMK A01 T01170025  RH  053%=      5-min Rain = 0
KCO2 131352Z 15003KT 12/03 A3003 RMK A01 T01170025  RH  053%=      5-min Rain = 0
KCO2 131353Z 17004KT 12/03 A3003 RMK A01 T01190026  RH  053%=      5-min Rain = 0
KCO2 131354Z 15002KT 12/03 A3003 RMK A01 T01200026  RH  053%=      5-min Rain = 0
KCO2 131355Z 15003KT 12/03 A3003 RMK A01 T01210026  RH  052%=      5-min Rain = 0
KCO2 131356Z 15003KT 12/03 A3003 RMK A01 T01220026  RH  052%=      5-min Rain = 0
KCO2 131357Z 16004KT 12/03 A3003 RMK A01 T01230026  RH  052%=      5-min Rain = 0
KCO2 131358Z 15004KT 12/03 A3003 RMK A01 T01240026  RH  051%=      5-min Rain = 0
KCO2 131359Z 15004KT 13/03 A3003 RMK A01 T01250027  RH  051%=      5-min Rain = 0
KCO2 131400Z 16004KT 13/03 A3003 RMK A01 T01250026  RH  051%=      5-min Rain = 0
KCO2 131401Z 16004KT 13/03 A3003 RMK A01 T01250026  RH  051%=      5-min Rain = 0
KCO2 131402Z 17005KT 13/03 A3003 RMK A01 T01260027  RH  051%=      5-min Rain = 0
KCO2 131403Z 17004KT 13/03 A3003 RMK A01 T01270027  RH  051%=      5-min Rain = 0
KCO2 131404Z 16005KT 13/03 A3003 RMK A01 T01280027  RH  050%=      5-min Rain = 0
KCO2 131405Z 16005KT 13/03 A3003 RMK A01 T01290027  RH  050%=      5-min Rain = 0
KCO2 131406Z 16006KT 13/03 A3003 RMK A01 T01290027  RH  050%=      5-min Rain = 0
KCO2 131407Z 17005KT 13/03 A3003 RMK A01 T01290027  RH  050%=      5-min Rain = 0
KCO2 131408Z 18005KT 13/03 A3003 RMK A01 T01300027  RH  049%=      5-min Rain = 0
KCO2 131409Z 17005KT 13/03 A3003 RMK A01 T01310027  RH  049%=      5-min Rain = 0
KCO2 131410Z 18005KT 13/03 A3003 RMK A01 T01310028  RH  050%=      5-min Rain = 0
KCO2 131411Z 16004KT 13/03 A3003 RMK A01 T01310028  RH  050%=      5-min Rain = 0
KCO2 131412Z 16005KT 13/03 A3003 RMK A01 T01330030  RH  050%=      5-min Rain = 0
KCO2 131413Z 17004KT 13/03 A3003 RMK A01 T01330028  RH  049%=      5-min Rain = 0
KCO2 131414Z 17004KT 13/03 A3003 RMK A01 T01340028  RH  049%=      5-min Rain = 0
KCO2 131415Z 16005KT 13/03 A3003 RMK A01 T01340028  RH  049%=      5-min Rain = 0
KCO2 131416Z 17004KT 14/03 A3003 RMK A01 T01350028  RH  048%=      5-min Rain = 0
KCO2 131417Z 19005KT 14/03 A3003 RMK A01 T01350029  RH  049%=      5-min Rain = 0
KCO2 131418Z 20005KT 14/03 A3003 RMK A01 T01360029  RH  049%=      5-min Rain = 0
KCO2 131419Z 18005KT 14/03 A3003 RMK A01 T01360030  RH  048%=      5-min Rain = 0
KCO2 131420Z 20006KT 14/03 A3003 RMK A01 T01380031  RH  048%=      5-min Rain = 0
KCO2 131421Z 20006KT 14/03 A3003 RMK A01 T01400031  RH  048%=      5-min Rain = 0
KCO2 131422Z 19006KT 14/03 A3003 RMK A01 T01400031  RH  048%=      5-min Rain = 0
KCO2 131423Z 19007KT 14/03 A3003 RMK A01 T01410031  RH  047%=      5-min Rain = 0
KCO2 131424Z 18006KT 14/03 A3003 RMK A01 T01410031  RH  047%=      5-min Rain = 0
KCO2 131425Z 19007KT 14/03 A3003 RMK A01 T01420031  RH  047%=      5-min Rain = 0
KCO2 131426Z 20008KT 14/03 A3003 RMK A01 T01420031  RH  047%=      5-min Rain = 0
KCO2 131427Z 19007KT 14/03 A3003 RMK A01 T01430030  RH  047%=      5-min Rain = 0
KCO2 131428Z 19007KT 14/03 A3003 RMK A01 T01420030  RH  047%=      5-min Rain = 0
KCO2 131429Z 19008KT 14/03 A3003 RMK A01 T01420030  RH  047%=      5-min Rain = 0
KCO2 131430Z 19007KT 14/03 A3003 RMK A01 T01420030  RH  047%=      5-min Rain = 0
KCO2 131431Z 18008KT 14/03 A3003 RMK A01 T01430031  RH  047%=      5-min Rain = 0
KCO2 131432Z 17007KT 14/03 A3003 RMK A01 T01430030  RH  047%=      5-min Rain = 0
KCO2 131433Z 19007KT 14/03 A3003 RMK A01 T01430031  RH  047%=      5-min Rain = 0
KCO2 131434Z 18005KT 15/03 A3003 RMK A01 T01450032  RH  047%=      5-min Rain = 0
KCO2 131435Z 18006KT 15/03 A3003 RMK A01 T01470032  RH  046%=      5-min Rain = 0
KCO2 131436Z 18005KT 15/03 A3003 RMK A01 T01480032  RH  046%=      5-min Rain = 0
KCO2 131437Z 18007KT 15/03 A3003 RMK A01 T01500032  RH  045%=      5-min Rain = 0
KCO2 131438Z 19007KT 15/03 A3003 RMK A01 T01500032  RH  045%=      5-min Rain = 0
KCO2 131439Z 17008KT 15/03 A3003 RMK A01 T01510032  RH  045%=      5-min Rain = 0
KCO2 131440Z 18008KT 15/03 A3003 RMK A01 T01510032  RH  045%=      5-min Rain = 0
KCO2 131441Z 22008KT 15/03 A3003 RMK A01 T01510032  RH  045%=      5-min Rain = 0
KCO2 131442Z 21007KT 15/03 A3003 RMK A01 T01500032  RH  045%=      5-min Rain = 0
KCO2 131443Z 19006KT 15/03 A3003 RMK A01 T01490032  RH  045%=      5-min Rain = 0
KCO2 131444Z 20008KT 15/03 A3003 RMK A01 T01500032  RH  045%=      5-min Rain = 0
KCO2 131445Z 22007KT 15/03 A3003 RMK A01 T01500032  RH  045%=      5-min Rain = 0
KCO2 131446Z 22007KT 15/03 A3003 RMK A01 T01510032  RH  045%=      5-min Rain = 0
KCO2 131447Z 22005KT 15/03 A3003 RMK A01 T01500032  RH  045%=      5-min Rain = 0
KCO2 131448Z 22006KT 15/03 A3003 RMK A01 T01510033  RH  045%=      5-min Rain = 0
KCO2 131449Z 22006KT 15/03 A3003 RMK A01 T01520033  RH  045%=      5-min Rain = 0
KCO2 131450Z 21005KT 15/03 A3003 RMK A01 T01530033  RH  045%=      5-min Rain = 0
KCO2 131451Z 23007KT 15/03 A3003 RMK A01 T01520033  RH  045%=      5-min Rain = 0
KCO2 131452Z 21006KT 15/03 A3003 RMK A01 T01520033  RH  045%=      5-min Rain = 0
KCO2 131453Z 22005KT 15/03 A3003 RMK A01 T01520033  RH  045%=      5-min Rain = 0
KCO2 131454Z 21003KT 15/03 A3003 RMK A01 T01520034  RH  045%=      5-min Rain = 0
KCO2 131455Z 22004KT 15/03 A3003 RMK A01 T01530033  RH  045%=      5-min Rain = 0
KCO2 131456Z 21006KT 15/03 A3003 RMK A01 T01530033  RH  045%=      5-min Rain = 0
KCO2 131457Z 21006KT 15/03 A3003 RMK A01 T01530034  RH  045%=      5-min Rain = 0
KCO2 131458Z 19005KT 16/03 A3004 RMK A01 T01550034  RH  044%=      5-min Rain = 0
KCO2 131459Z 20004KT 16/03 A3004 RMK A01 T01560034  RH  044%=      5-min Rain = 0
KCO2 131500Z 21007KT 16/03 A3004 RMK A01 T01580034  RH  044%=      5-min Rain = 0
KCO2 131501Z 21006KT 16/03 A3004 RMK A01 T01580033  RH  043%=      5-min Rain = 0
KCO2 131502Z 20005KT 16/03 A3004 RMK A01 T01570034  RH  044%=      5-min Rain = 0
KCO2 131503Z 21004KT 16/03 A3004 RMK A01 T01570033  RH  043%=      5-min Rain = 0
KCO2 131504Z 21004KT 16/03 A3004 RMK A01 T01560033  RH  044%=      5-min Rain = 0
KCO2 131505Z 20004KT 16/03 A3004 RMK A01 T01560033  RH  044%=      5-min Rain = 0
KCO2 131506Z 21003KT 16/03 A3004 RMK A01 T01550033  RH  044%=      5-min Rain = 0
KCO2 131507Z 20005KT 16/03 A3004 RMK A01 T01550033  RH  044%=      5-min Rain = 0
KCO2 131508Z 20005KT 16/03 A3004 RMK A01 T01560033  RH  044%=      5-min Rain = 0
KCO2 131509Z 21003KT 16/03 A3004 RMK A01 T01570033  RH  044%=      5-min Rain = 0
KCO2 131510Z 20005KT 16/03 A3004 RMK A01 T01580034  RH  043%=      5-min Rain = 0
KCO2 131511Z 19005KT 16/03 A3004 RMK A01 T01590034  RH  043%=      5-min Rain = 0
KCO2 131512Z 22005KT 16/03 A3004 RMK A01 T01600034  RH  043%=      5-min Rain = 0
KCO2 131513Z 21005KT 16/03 A3004 RMK A01 T01600034  RH  043%=      5-min Rain = 0
KCO2 131514Z 21006KT 16/03 A3004 RMK A01 T01600034  RH  043%=      5-min Rain = 0
KCO2 131515Z 20005KT 16/03 A3004 RMK A01 T01590034  RH  043%=      5-min Rain = 0
KCO2 131516Z 18004KT 16/03 A3004 RMK A01 T01600034  RH  043%=      5-min Rain = 0
KCO2 131517Z 20006KT 16/03 A3004 RMK A01 T01600034  RH  043%=      5-min Rain = 0
KCO2 131518Z 20006KT 16/04 A3004 RMK A01 T01630035  RH  042%=      5-min Rain = 0
KCO2 131519Z 20006KT 16/04 A3004 RMK A01 T01640035  RH  042%=      5-min Rain = 0
KCO2 131520Z 20005KT 16/04 A3004 RMK A01 T01640035  RH  042%=      5-min Rain = 0
KCO2 131521Z 22006KT 17/03 A3004 RMK A01 T01650034  RH  042%=      5-min Rain = 0
KCO2 131522Z 22005KT 17/04 A3004 RMK A01 T01650036  RH  042%=      5-min Rain = 0
KCO2 131523Z 23005KT 17/04 A3004 RMK A01 T01670036  RH  042%=      5-min Rain = 0
KCO2 131524Z 22003KT 17/04 A3004 RMK A01 T01670035  RH  041%=      5-min Rain = 0
KCO2 131525Z 21004KT 17/03 A3004 RMK A01 T01660033  RH  041%=      5-min Rain = 0
KCO2 131526Z 23005KT 16/03 A3004 RMK A01 T01630033  RH  042%=      5-min Rain = 0
KCO2 131527Z 19005KT 17/04 A3004 RMK A01 T01650036  RH  042%=      5-min Rain = 0
KCO2 131528Z 19005KT 17/04 A3004 RMK A01 T01690037  RH  041%=      5-min Rain = 0
KCO2 131529Z 20004KT 17/04 A3004 RMK A01 T01700035  RH  041%=      5-min Rain = 0
KCO2 131530Z 22003KT 17/04 A3004 RMK A01 T01700036  RH  041%=      5-min Rain = 0
KCO2 131531Z 22003G8KT 17/04 A3004 RMK A01 T01720037  RH  040%=      5-min Rain = 0
KCO2 131532Z 21006KT 17/04 A3004 RMK A01 T01730036  RH  040%=      5-min Rain = 0
KCO2 131533Z 22005KT 17/04 A3004 RMK A01 T01710035  RH  040%=      5-min Rain = 0
KCO2 131534Z 23006KT 17/04 A3004 RMK A01 T01710036  RH  041%=      5-min Rain = 0
KCO2 131535Z 23006KT 17/04 A3004 RMK A01 T01720036  RH  040%=      5-min Rain = 0
KCO2 131536Z 23006KT 17/04 A3004 RMK A01 T01720037  RH  040%=      5-min Rain = 0
KCO2 131537Z 23005KT 17/04 A3004 RMK A01 T01740036  RH  040%=      5-min Rain = 0
KCO2 131538Z 23004KT 17/04 A3004 RMK A01 T01720035  RH  040%=      5-min Rain = 0
KCO2 131539Z 24004KT 17/04 A3004 RMK A01 T01710035  RH  040%=      5-min Rain = 0
KCO2 131540Z 21002KT 17/04 A3004 RMK A01 T01700035  RH  041%=      5-min Rain = 0
KCO2 131541Z 26002KT 17/04 A3004 RMK A01 T01700036  RH  041%=      5-min Rain = 0
KCO2 131542Z 23004KT 17/04 A3004 RMK A01 T01730037  RH  040%=      5-min Rain = 0
KCO2 131543Z 22002KT 17/04 A3004 RMK A01 T01740037  RH  040%=      5-min Rain = 0
KCO2 131544Z 26002KT 18/04 A3004 RMK A01 T01770039  RH  040%=      5-min Rain = 0
KCO2 131545Z 23002KT 18/04 A3004 RMK A01 T01790038  RH  039%=      5-min Rain = 0
KCO2 131546Z 23002KT 18/04 A3004 RMK A01 T01810039  RH  039%=      5-min Rain = 0
KCO2 131547Z 20005KT 18/04 A3004 RMK A01 T01830040  RH  039%=      5-min Rain = 0
KCO2 131548Z 18004KT 18/04 A3004 RMK A01 T01840038  RH  038%=      5-min Rain = 0
KCO2 131549Z 18004KT 18/04 A3004 RMK A01 T01830038  RH  038%=      5-min Rain = 0
KCO2 131550Z 19002KT 18/04 A3004 RMK A01 T01830038  RH  038%=      5-min Rain = 0
KCO2 131551Z 25003KT 18/04 A3004 RMK A01 T01840039  RH  038%=      5-min Rain = 0
KCO2 131552Z 25003KT 19/04 A3004 RMK A01 T01860040  RH  038%=      5-min Rain = 0
KCO2 131553Z 25005KT 19/04 A3004 RMK A01 T01870040  RH  038%=      5-min Rain = 0
KCO2 131554Z 24006KT 19/04 A3004 RMK A01 T01890040  RH  037%=      5-min Rain = 0
KCO2 131555Z 24005KT 19/04 A3004 RMK A01 T01880039  RH  037%=      5-min Rain = 0
KCO2 131556Z 22006KT 19/04 A3004 RMK A01 T01880039  RH  037%=      5-min Rain = 0
KCO2 131557Z 24005KT 19/04 A3004 RMK A01 T01860037  RH  037%=      5-min Rain = 0
KCO2 131558Z 23005KT 18/04 A3004 RMK A01 T01840038  RH  038%=      5-min Rain = 0
KCO2 131559Z 23006KT 18/04 A3004 RMK A01 T01840038  RH  038%=      5-min Rain = 0
KCO2 131600Z 21006KT 18/04 A3004 RMK A01 T01830039  RH  038%=      5-min Rain = 0
KCO2 131601Z 20007KT 19/04 A3004 RMK A01 T01860040  RH  038%=      5-min Rain = 0
KCO2 131602Z 21005KT 19/04 A3004 RMK A01 T01870039  RH  038%=      5-min Rain = 0
KCO2 131603Z 23006KT 19/04 A3004 RMK A01 T01870039  RH  038%=      5-min Rain = 0
KCO2 131604Z 24006KT 18/04 A3004 RMK A01 T01840038  RH  038%=      5-min Rain = 0
KCO2 131605Z 24006KT 18/04 A3004 RMK A01 T01840039  RH  038%=      5-min Rain = 0
KCO2 131606Z 27003KT 18/04 A3003 RMK A01 T01840038  RH  038%=      5-min Rain = 0
KCO2 131607Z 23005KT 18/04 A3004 RMK A01 T01830038  RH  038%=      5-min Rain = 0
KCO2 131608Z 22007KT 18/04 A3004 RMK A01 T01830039  RH  038%=      5-min Rain = 0
KCO2 131609Z 21007KT 18/04 A3004 RMK A01 T01840039  RH  038%=      5-min Rain = 0
KCO2 131610Z 22006KT 18/04 A3004 RMK A01 T01840039  RH  038%=      5-min Rain = 0
KCO2 131611Z 23004KT 19/04 A3004 RMK A01 T01850039  RH  038%=      5-min Rain = 0
KCO2 131612Z 22003KT 19/04 A3004 RMK A01 T01860039  RH  038%=      5-min Rain = 0
KCO2 131613Z 23005KT 19/04 A3004 RMK A01 T01860040  RH  038%=      5-min Rain = 0
KCO2 131614Z 21004KT 19/04 A3003 RMK A01 T01880040  RH  038%=      5-min Rain = 0
KCO2 131615Z 18005KT 19/04 A3003 RMK A01 T01880040  RH  037%=      5-min Rain = 0
KCO2 131616Z 19007KT 19/04 A3003 RMK A01 T01910041  RH  037%=      5-min Rain = 0
KCO2 131617Z 19005KT 19/04 A3003 RMK A01 T01930041  RH  037%=      5-min Rain = 0
KCO2 131618Z 18004KT 19/04 A3003 RMK A01 T01920040  RH  036%=      5-min Rain = 0
KCO2 131619Z 18004KT 19/04 A3003 RMK A01 T01910039  RH  037%=      5-min Rain = 0
KCO2 131620Z 19004KT 19/04 A3003 RMK A01 T01910040  RH  037%=      5-min Rain = 0
KCO2 131621Z 19002KT 19/04 A3003 RMK A01 T01900039  RH  037%=      5-min Rain = 0
KCO2 131622Z 18005KT 19/04 A3003 RMK A01 T01890040  RH  037%=      5-min Rain = 0
KCO2 131623Z 18005KT 19/04 A3003 RMK A01 T01940043  RH  037%=      5-min Rain = 0
KCO2 131624Z 18003KT 20/04 A3003 RMK A01 T01970042  RH  036%=      5-min Rain = 0
KCO2 131625Z 21006KT 20/04 A3003 RMK A01 T01990042  RH  035%=      5-min Rain = 0
KCO2 131626Z 25004KT 20/04 A3003 RMK A01 T01980041  RH  035%=      5-min Rain = 0
KCO2 131627Z 25004KT 20/04 A3003 RMK A01 T01990044  RH  036%=      5-min Rain = 0
KCO2 131628Z 20006KT 20/04 A3003 RMK A01 T02020044  RH  035%=      5-min Rain = 0
KCO2 131629Z 19005KT 20/04 A3003 RMK A01 T02020042  RH  035%=      5-min Rain = 0
KCO2 131630Z 24004KT 20/04 A3003 RMK A01 T02010041  RH  035%=      5-min Rain = 0
KCO2 131631Z 24006KT 20/04 A3003 RMK A01 T02010042  RH  035%=      5-min Rain = 0
KCO2 131632Z 25005KT 20/04 A3003 RMK A01 T02010041  RH  035%=      5-min Rain = 0
KCO2 131633Z 22003KT 20/04 A3003 RMK A01 T02000041  RH  035%=      5-min Rain = 0
KCO2 131634Z 22005KT 20/04 A3003 RMK A01 T02000042  RH  035%=      5-min Rain = 0
KCO2 131635Z 24003KT 20/04 A3003 RMK A01 T02000041  RH  035%=      5-min Rain = 0
KCO2 131636Z 23003KT 20/04 A3003 RMK A01 T02010043  RH  035%=      5-min Rain = 0
KCO2 131637Z 22007KT 20/04 A3003 RMK A01 T02040044  RH  035%=      5-min Rain = 0
KCO2 131638Z 21005KT 20/04 A3003 RMK A01 T02040042  RH  034%=      5-min Rain = 0
KCO2 131639Z 22003KT 20/04 A3003 RMK A01 T02020041  RH  035%=      5-min Rain = 0
KCO2 131640Z 24004KT 20/04 A3003 RMK A01 T02020042  RH  035%=      5-min Rain = 0
KCO2 131641Z 24005KT 21/04 A3003 RMK A01 T02050043  RH  035%=      5-min Rain = 0
KCO2 131642Z 24004KT 21/04 A3003 RMK A01 T02070043  RH  034%=      5-min Rain = 0
KCO2 131643Z 21004KT 21/04 A3003 RMK A01 T02070043  RH  034%=      5-min Rain = 0
KCO2 131644Z 23003KT 21/04 A3003 RMK A01 T02080043  RH  034%=      5-min Rain = 0
KCO2 131645Z 22004KT 21/04 A3003 RMK A01 T02080042  RH  034%=      5-min Rain = 0
KCO2 131646Z 21006KT 21/04 A3003 RMK A01 T02080043  RH  034%=      5-min Rain = 0
KCO2 131647Z 21006KT 21/04 A3003 RMK A01 T02100043  RH  033%=      5-min Rain = 0
KCO2 131648Z 19007KT 21/04 A3002 RMK A01 T02100043  RH  033%=      5-min Rain = 0
KCO2 131649Z 21006KT 21/04 A3002 RMK A01 T02100043  RH  033%=      5-min Rain = 0
KCO2 131650Z 18004KT 21/04 A3002 RMK A01 T02080042  RH  034%=      5-min Rain = 0
KCO2 131651Z 21006KT 21/04 A3002 RMK A01 T02080043  RH  034%=      5-min Rain = 0
KCO2 131652Z 21005KT 21/04 A3002 RMK A01 T02100044  RH  034%=      5-min Rain = 0
KCO2 131653Z 22005KT 21/04 A3002 RMK A01 T02130044  RH  033%=      5-min Rain = 0
KCO2 131654Z 26005KT 21/04 A3002 RMK A01 T02130044  RH  033%=      5-min Rain = 0
KCO2 131655Z 24002KT 21/04 A3002 RMK A01 T02140043  RH  033%=      5-min Rain = 0
KCO2 131656Z 22004KT 21/04 A3002 RMK A01 T02140044  RH  033%=      5-min Rain = 0
KCO2 131657Z 23001KT 21/04 A3002 RMK A01 T02140043  RH  033%=      5-min Rain = 0
KCO2 131658Z 22007KT 21/04 A3002 RMK A01 T02140043  RH  033%=      5-min Rain = 0
KCO2 131659Z 23005KT 22/04 A3002 RMK A01 T02150044  RH  033%=      5-min Rain = 0
KCO2 131700Z 26005KT 22/04 A3002 RMK A01 T02150044  RH  033%=      5-min Rain = 0
KCO2 131701Z 25004KT 22/04 A3002 RMK A01 T02150044  RH  033%=      5-min Rain = 0
KCO2 131702Z 24007KT 22/05 A3002 RMK A01 T02160045  RH  033%=      5-min Rain = 0
KCO2 131703Z 24008KT 22/05 A3002 RMK A01 T02180046  RH  032%=      5-min Rain = 0
KCO2 131704Z 23005KT 22/04 A3002 RMK A01 T02190044  RH  032%=      5-min Rain = 0
KCO2 131705Z 25007KT 22/04 A3002 RMK A01 T02180044  RH  032%=      5-min Rain = 0
KCO2 131706Z 24006KT 22/05 A3002 RMK A01 T02180045  RH  032%=      5-min Rain = 0
KCO2 131707Z 24005KT 22/04 A3002 RMK A01 T02190044  RH  032%=      5-min Rain = 0
KCO2 131708Z 24003KT 22/04 A3002 RMK A01 T02180044  RH  032%=      5-min Rain = 0
KCO2 131709Z 21005KT 22/04 A3002 RMK A01 T02170044  RH  032%=      5-min Rain = 0
KCO2 131710Z 23005KT 22/04 A3002 RMK A01 T02180044  RH  032%=      5-min Rain = 0
KCO2 131711Z 19008KT 22/05 A3002 RMK A01 T02190046  RH  032%=      5-min Rain = 0
KCO2 131712Z 23007KT 22/05 A3002 RMK A01 T02230046  RH  032%=      5-min Rain = 0
KCO2 131713Z 23005KT 23/05 A3002 RMK A01 T02270049  RH  031%=      5-min Rain = 0
KCO2 131714Z 19007KT 23/05 A3002 RMK A01 T02310048  RH  030%=      5-min Rain = 0
KCO2 131715Z 18005KT 23/05 A3002 RMK A01 T02300046  RH  030%=      5-min Rain = 0
KCO2 131716Z 20006KT 23/05 A3002 RMK A01 T02300047  RH  031%=      5-min Rain = 0
KCO2 131717Z 20005KT 23/05 A3002 RMK A01 T02320047  RH  030%=      5-min Rain = 0
KCO2 131718Z 19005KT 23/05 A3002 RMK A01 T02330047  RH  030%=      5-min Rain = 0
KCO2 131719Z 17006G14KT 23/05 A3002 RMK A01 T02310046  RH  030%=      5-min Rain = 0
KCO2 131720Z 24007KT 23/05 A3002 RMK A01 T02300047  RH  030%=      5-min Rain = 0
KCO2 131721Z 22005KT 23/05 A3002 RMK A01 T02300046  RH  030%=      5-min Rain = 0
KCO2 131722Z 23005KT 23/05 A3002 RMK A01 T02290047  RH  031%=      5-min Rain = 0
KCO2 131723Z 22006KT 23/05 A3002 RMK A01 T02330050  RH  030%=      5-min Rain = 0
KCO2 131724Z 21008KT 24/05 A3002 RMK A01 T02360048  RH  030%=      5-min Rain = 0
KCO2 131725Z 20005KT 23/05 A3002 RMK A01 T02340047  RH  030%=      5-min Rain = 0
KCO2 131726Z 18004KT 23/05 A3002 RMK A01 T02300046  RH  030%=      5-min Rain = 0
KCO2 131727Z 18007KT 23/05 A3002 RMK A01 T02300047  RH  030%=      5-min Rain = 0
KCO2 131728Z 18004KT 23/05 A3002 RMK A01 T02310047  RH  030%=      5-min Rain = 0
KCO2 131729Z 17005KT 23/05 A3002 RMK A01 T02340050  RH  030%=      5-min Rain = 0
KCO2 131730Z 19006KT 24/05 A3001 RMK A01 T02380049  RH  029%=      5-min Rain = 0
KCO2 131731Z 25006KT 24/05 A3001 RMK A01 T02390049  RH  029%=      5-min Rain = 0
KCO2 131732Z 25006KT 24/05 A3001 RMK A01 T02370048  RH  029%=      5-min Rain = 0
KCO2 131733Z 20007KT 24/05 A3001 RMK A01 T02360048  RH  030%=      5-min Rain = 0
KCO2 131734Z 18007KT 24/05 A3001 RMK A01 T02360048  RH  030%=      5-min Rain = 0
KCO2 131735Z 19006KT 24/05 A3001 RMK A01 T02350048  RH  030%=      5-min Rain = 0
KCO2 131736Z 20005KT 23/05 A3001 RMK A01 T02320048  RH  030%=      5-min Rain = 0
KCO2 131737Z 20006KT 23/05 A3001 RMK A01 T02330050  RH  030%=      5-min Rain = 0
KCO2 131738Z 18004KT 24/05 A3001 RMK A01 T02360049  RH  030%=      5-min Rain = 0
KCO2 131739Z 17004KT 24/05 A3001 RMK A01 T02350049  RH  030%=      5-min Rain = 0
KCO2 131740Z 20002KT 23/05 A3001 RMK A01 T02340048  RH  030%=      5-min Rain = 0
KCO2 131741Z 22004KT 23/05 A3001 RMK A01 T02330049  RH  030%=      5-min Rain = 0
KCO2 131742Z 25004KT 23/05 A3001 RMK A01 T02340049  RH  030%=      5-min Rain = 0
KCO2 131743Z 22006KT 24/05 A3001 RMK A01 T02360050  RH  030%=      5-min Rain = 0
KCO2 131744Z 20007KT 24/05 A3001 RMK A01 T02390051  RH  030%=      5-min Rain = 0
KCO2 131745Z 21006KT 24/05 A3001 RMK A01 T02440053  RH  029%=      5-min Rain = 0
KCO2 131746Z 23005KT 25/05 A3001 RMK A01 T02470052  RH  028%=      5-min Rain = 0
KCO2 131747Z 20006KT 25/05 A3001 RMK A01 T02470051  RH  028%=      5-min Rain = 0
KCO2 131748Z 20005KT 25/05 A3001 RMK A01 T02450050  RH  028%=      5-min Rain = 0
KCO2 131749Z 23004KT 24/05 A3001 RMK A01 T02440051  RH  029%=      5-min Rain = 0
KCO2 131750Z 22006KT 25/05 A3001 RMK A01 T02460053  RH  029%=      5-min Rain = 0
KCO2 131751Z 20004KT 25/05 A3001 RMK A01 T02490051  RH  028%=      5-min Rain = 0
KCO2 131752Z 18002KT 25/05 A3001 RMK A01 T02480052  RH  028%=      5-min Rain = 0
KCO2 131753Z 19003KT 25/05 A3001 RMK A01 T02500051  RH  028%=      5-min Rain = 0
KCO2 131754Z 18004KT 25/05 A3001 RMK A01 T02520052  RH  028%=      5-min Rain = 0
KCO2 131755Z 26004KT 25/05 A30 RMK A01 T02520052  RH  028%=      5-min Rain = 0
KCO2 131756Z 25004KT 25/05 A3001 RMK A01 T02530052  RH  028%=      5-min Rain = 0
KCO2 131757Z 23005KT 25/05 A30 RMK A01 T02530051  RH  027%=      5-min Rain = 0
KCO2 131758Z 22006KT 25/05 A30 RMK A01 T02510052  RH  028%=      5-min Rain = 0
KCO2 131759Z 24007KT 25/05 A30 RMK A01 T02520052  RH  028%=      5-min Rain = 0
KCO2 131800Z 21005KT 25/05 A30 RMK A01 T02510051  RH  028%=      5-min Rain = 0
KCO2 131801Z 19004KT 25/05 A30 RMK A01 T02510052  RH  028%=      5-min Rain = 0
KCO2 131802Z 23004KT 26/05 A30 RMK A01 T02550054  RH  027%=      5-min Rain = 0
KCO2 131803Z 25004KT 26/05 A30 RMK A01 T02560052  RH  027%=      5-min Rain = 0
KCO2 131804Z 24002KT 25/05 A30 RMK A01 T02510049  RH  027%=      5-min Rain = 0
KCO2 131805Z 22006KT 25/05 A30 RMK A01 T02500052  RH  028%=      5-min Rain = 0
KCO2 131806Z 20003KT 25/05 A30 RMK A01 T02510051  RH  028%=      5-min Rain = 0
KCO2 131807Z 04001KT 25/05 A30 RMK A01 T02490050  RH  028%=      5-min Rain = 0
KCO2 131808Z 20005KT 25/05 A30 RMK A01 T02500053  RH  028%=      5-min Rain = 0
KCO2 131809Z 20007KT 26/06 A30 RMK A01 T02550055  RH  028%=      5-min Rain = 0
KCO2 131810Z 21007KT 26/06 A30 RMK A01 T02600056  RH  027%=      5-min Rain = 0
KCO2 131811Z 22005KT 26/06 A30 RMK A01 T02640055  RH  026%=      5-min Rain = 0
KCO2 131812Z 22005KT 26/05 A30 RMK A01 T02640053  RH  026%=      5-min Rain = 0
KCO2 131813Z 21005KT 26/05 A30 RMK A01 T02610054  RH  026%=      5-min Rain = 0
KCO2 131814Z 18005KT 26/06 A30 RMK A01 T02620055  RH  027%=      5-min Rain = 0
KCO2 131815Z 18007KT 26/05 A2999 RMK A01 T02640054  RH  026%=      5-min Rain = 0
KCO2 131816Z 18007KT 26/06 A2999 RMK A01 T02640055  RH  026%=      5-min Rain = 0
KCO2 131817Z 17007KT 26/05 A2999 RMK A01 T02640054  RH  026%=      5-min Rain = 0
KCO2 131818Z 22005KT 26/05 A2999 RMK A01 T02610053  RH  026%=      5-min Rain = 0
KCO2 131819Z 21006KT 26/06 A2999 RMK A01 T02610055  RH  027%=      5-min Rain = 0
KCO2 131820Z 21008KT 26/06 A2999 RMK A01 T02640056  RH  026%=      5-min Rain = 0
KCO2 131821Z 21009KT 27/06 A2999 RMK A01 T02650055  RH  026%=      5-min Rain = 0
KCO2 131822Z 23006KT 26/05 A2999 RMK A01 T02630054  RH  026%=      5-min Rain = 0
KCO2 131823Z 24008KT 26/05 A2999 RMK A01 T02620054  RH  026%=      5-min Rain = 0
KCO2 131824Z 24005KT 26/05 A2999 RMK A01 T02610054  RH  027%=      5-min Rain = 0
KCO2 131825Z 26004KT 26/05 A2999 RMK A01 T02590053  RH  027%=      5-min Rain = 0
KCO2 131826Z 28003KT 26/05 A2999 RMK A01 T02580053  RH  027%=      5-min Rain = 0
KCO2 131827Z 28002KT 26/05 A2998 RMK A01 T02580054  RH  027%=      5-min Rain = 0
KCO2 131828Z 23004KT 26/05 A2998 RMK A01 T02580054  RH  027%=      5-min Rain = 0
KCO2 131829Z 23005KT 26/05 A2998 RMK A01 T02590054  RH  027%=      5-min Rain = 0
KCO2 131830Z 19005KT 26/06 A2998 RMK A01 T02630056  RH  027%=      5-min Rain = 0
KCO2 131831Z 18006KT 27/06 A2998 RMK A01 T02660055  RH  026%=      5-min Rain = 0
KCO2 131832Z 23006KT 27/05 A2998 RMK A01 T02650054  RH  026%=      5-min Rain = 0
KCO2 131833Z 22007KT 26/05 A2998 RMK A01 T02630054  RH  026%=      5-min Rain = 0
KCO2 131834Z 23006KT 27/06 A2998 RMK A01 T02660055  RH  026%=      5-min Rain = 0
KCO2 131835Z 21005KT 26/05 A2998 RMK A01 T02640053  RH  026%=      5-min Rain = 0
KCO2 131836Z 19008KT 26/05 A2998 RMK A01 T02630054  RH  026%=      5-min Rain = 0
KCO2 131837Z 20005KT 26/05 A2998 RMK A01 T02630054  RH  026%=      5-min Rain = 0
KCO2 131838Z 20007KT 27/06 A2998 RMK A01 T02650055  RH  026%=      5-min Rain = 0
KCO2 131839Z 17002KT 27/05 A2998 RMK A01 T02650054  RH  026%=      5-min Rain = 0
KCO2 131840Z 21004G9KT 26/06 A2998 RMK A01 T02640055  RH  026%=      5-min Rain = 0
KCO2 131841Z 23006KT 27/06 A2998 RMK A01 T02670056  RH  026%=      5-min Rain = 0
KCO2 131842Z 23005KT 27/05 A2998 RMK A01 T02660053  RH  026%=      5-min Rain = 0
KCO2 131843Z 17004KT 26/05 A2997 RMK A01 T02640054  RH  026%=      5-min Rain = 0
KCO2 131844Z 18005KT 26/05 A2997 RMK A01 T02640054  RH  026%=      5-min Rain = 0
KCO2 131845Z 15006KT 27/06 A2997 RMK A01 T02670055  RH  026%=      5-min Rain = 0
KCO2 131846Z 17004KT 27/06 A2997 RMK A01 T02690056  RH  026%=      5-min Rain = 0
KCO2 131847Z 22008KT 27/06 A2997 RMK A01 T02710057  RH  026%=      5-min Rain = 0
KCO2 131848Z 22007KT 28/06 A2997 RMK A01 T02750057  RH  025%=      5-min Rain = 0
KCO2 131849Z 20009KT 28/06 A2997 RMK A01 T02760056  RH  025%=      5-min Rain = 0
KCO2 131850Z 18009KT 28/06 A2997 RMK A01 T02750056  RH  025%=      5-min Rain = 0
KCO2 131851Z 21010KT 27/06 A2997 RMK A01 T02740056  RH  025%=      5-min Rain = 0
KCO2 131852Z 22006KT 27/06 A2997 RMK A01 T02740056  RH  025%=      5-min Rain = 0
KCO2 131853Z 23006KT 28/06 A2997 RMK A01 T02750055  RH  025%=      5-min Rain = 0
KCO2 131854Z 23006KT 28/06 A2997 RMK A01 T02750056  RH  025%=      5-min Rain = 0
KCO2 131855Z 24002KT 27/05 A2997 RMK A01 T02740054  RH  025%=      5-min Rain = 0
KCO2 131856Z 20001KT 27/05 A2997 RMK A01 T02720054  RH  025%=      5-min Rain = 0
KCO2 131857Z 15001KT 27/05 A2997 RMK A01 T02730054  RH  025%=      5-min Rain = 0
KCO2 131858Z 15003KT 28/06 A2997 RMK A01 T02760055  RH  025%=      5-min Rain = 0
KCO2 131859Z 16004KT 28/06 A2997 RMK A01 T02770056  RH  024%=      5-min Rain = 0
KCO2 131900Z 17006KT 28/06 A2996 RMK A01 T02770055  RH  024%=      5-min Rain = 0
KCO2 131901Z 17009KT 28/06 A2996 RMK A01 T02780056  RH  024%=      5-min Rain = 0
KCO2 131902Z 18007KT 28/05 A2996 RMK A01 T02790054  RH  024%=      5-min Rain = 0
KCO2 131903Z 20006KT 28/05 A2996 RMK A01 T02770054  RH  024%=      5-min Rain = 0
KCO2 131904Z 21005KT 28/06 A2996 RMK A01 T02780055  RH  024%=      5-min Rain = 0
KCO2 131905Z 21004KT 28/05 A2996 RMK A01 T02790053  RH  024%=      5-min Rain = 0
KCO2 131906Z 21004KT 28/05 A2996 RMK A01 T02790053  RH  024%=      5-min Rain = 0
KCO2 131907Z 28002KT 28/05 A2996 RMK A01 T02790052  RH  023%=      5-min Rain = 0
KCO2 131908Z 24005KT 28/05 A2996 RMK A01 T02790053  RH  024%=      5-min Rain = 0
KCO2 131909Z 24006KT 28/06 A2996 RMK A01 T02780055  RH  024%=      5-min Rain = 0
KCO2 131910Z 22006KT 28/06 A2996 RMK A01 T02800057  RH  024%=      5-min Rain = 0
KCO2 131911Z 22008KT 29/06 A2996 RMK A01 T02860057  RH  023%=      5-min Rain = 0
KCO2 131912Z 21007KT 29/06 A2996 RMK A01 T02870056  RH  023%=      5-min Rain = 0
KCO2 131913Z 18007KT 29/06 A2996 RMK A01 T02860055  RH  023%=      5-min Rain = 0
KCO2 131914Z 15003KT 28/05 A2996 RMK A01 T02840051  RH  023%=      5-min Rain = 0
KCO2 131915Z 21004KT 28/05 A2996 RMK A01 T02820052  RH  023%=      5-min Rain = 0
KCO2 131916Z 19004KT 28/05 A2996 RMK A01 T02820052  RH  023%=      5-min Rain = 0
KCO2 131917Z 17007KT 28/05 A2996 RMK A01 T02830052  RH  023%=      5-min Rain = 0
KCO2 131918Z 16006KT 28/05 A2996 RMK A01 T02840051  RH  023%=      5-min Rain = 0
KCO2 131919Z 18005KT 29/05 A2996 RMK A01 T02850051  RH  023%=      5-min Rain = 0
KCO2 131920Z 17002KT 28/05 A2995 RMK A01 T02830049  RH  023%=      5-min Rain = 0
KCO2 131921Z 18004KT 28/05 A2995 RMK A01 T02820050  RH  023%=      5-min Rain = 0
KCO2 131922Z 18006KT 29/05 A2995 RMK A01 T02850052  RH  023%=      5-min Rain = 0
KCO2 131923Z 18005KT 29/05 A2995 RMK A01 T02910053  RH  022%=      5-min Rain = 0
KCO2 131924Z 17002KT 29/05 A2995 RMK A01 T02920051  RH  022%=      5-min Rain = 0
KCO2 131925Z 18004KT 29/05 A2995 RMK A01 T02910053  RH  022%=      5-min Rain = 0
KCO2 131926Z 18006KT 29/05 A2995 RMK A01 T02900050  RH  022%=      5-min Rain = 0
KCO2 131927Z 18004KT 29/05 A2995 RMK A01 T02890051  RH  022%=      5-min Rain = 0
KCO2 131928Z 20002KT 29/05 A2995 RMK A01 T02880050  RH  022%=      5-min Rain = 0
KCO2 131929Z 20005KT 29/05 A2995 RMK A01 T02880051  RH  022%=      5-min Rain = 0
KCO2 131930Z 22007KT 29/05 A2995 RMK A01 T02910052  RH  022%=      5-min Rain = 0
KCO2 131931Z 23007KT 29/05 A2995 RMK A01 T02900052  RH  022%=      5-min Rain = 0
KCO2 131932Z 23005KT 29/05 A2995 RMK A01 T02890050  RH  022%=      5-min Rain = 0
KCO2 131933Z 25003KT 29/05 A2994 RMK A01 T02850050  RH  022%=      5-min Rain = 0
KCO2 131934Z 23006KT 29/05 A2994 RMK A01 T02860052  RH  022%=      5-min Rain = 0
KCO2 131935Z 22005KT 29/05 A2994 RMK A01 T02890051  RH  022%=      5-min Rain = 0
KCO2 131936Z 19006KT 29/05 A2994 RMK A01 T02890049  RH  022%=      5-min Rain = 0
KCO2 131937Z 17005KT 29/05 A2994 RMK A01 T02890049  RH  022%=      5-min Rain = 0
KCO2 131938Z 15005KT 29/05 A2994 RMK A01 T02900049  RH  022%=      5-min Rain = 0
KCO2 131939Z 19003KT 29/05 A2994 RMK A01 T02910049  RH  022%=      5-min Rain = 0
KCO2 131940Z 21007KT 29/05 A2994 RMK A01 T02900049  RH  022%=      5-min Rain = 0
KCO2 131941Z 20007KT 29/05 A2994 RMK A01 T02890050  RH  022%=      5-min Rain = 0
KCO2 131942Z 18003KT 29/05 A2994 RMK A01 T02910051  RH  022%=      5-min Rain = 0
KCO2 131943Z 20005KT 29/05 A2994 RMK A01 T02940050  RH  021%=      5-min Rain = 0
KCO2 131944Z 21003KT 29/05 A2994 RMK A01 T02930048  RH  021%=      5-min Rain = 0
KCO2 131945Z 19001KT 29/05 A2994 RMK A01 T02900046  RH  021%=      5-min Rain = 0
KCO2 131946Z 19004KT 29/05 A2994 RMK A01 T02880047  RH  022%=      5-min Rain = 0
KCO2 131947Z 16004KT 29/05 A2994 RMK A01 T02890049  RH  022%=      5-min Rain = 0
KCO2 131948Z 12002KT 29/05 A2994 RMK A01 T02900049  RH  022%=      5-min Rain = 0
KCO2 131949Z 16003KT 29/05 A2994 RMK A01 T02910050  RH  022%=      5-min Rain = 0
KCO2 131950Z 22005KT 29/05 A2994 RMK A01 T02930050  RH  021%=      5-min Rain = 0
KCO2 131951Z 20004KT 29/05 A2994 RMK A01 T02940048  RH  021%=      5-min Rain = 0
KCO2 131952Z 20004KT 29/05 A2994 RMK A01 T02940048  RH  021%=      5-min Rain = 0
KCO2 131953Z 17002KT 29/05 A2994 RMK A01 T02920048  RH  021%=      5-min Rain = 0
KCO2 131954Z 14006KT 29/05 A2994 RMK A01 T02930051  RH  022%=      5-min Rain = 0
KCO2 131955Z 16005KT 29/05 A2994 RMK A01 T02940052  RH  022%=      5-min Rain = 0
KCO2 131956Z 20007KT 30/05 A2994 RMK A01 T02950053  RH  022%=      5-min Rain = 0
KCO2 131957Z 22009KT 30/05 A2994 RMK A01 T02970054  RH  022%=      5-min Rain = 0
KCO2 131958Z 22007KT 30/05 A2994 RMK A01 T02980054  RH  021%=      5-min Rain = 0
KCO2 131959Z 21005KT 30/05 A2994 RMK A01 T02970053  RH  021%=      5-min Rain = 0
KCO2 132000Z 18005KT 30/05 A2994 RMK A01 T02960053  RH  021%=      5-min Rain = 0
KCO2 132001Z 18007KT 29/05 A2994 RMK A01 T02940052  RH  021%=      5-min Rain = 0
KCO2 132002Z 18007KT 29/05 A2994 RMK A01 T02940051  RH  021%=      5-min Rain = 0
KCO2 132003Z 17005KT 29/05 A2994 RMK A01 T02930052  RH  022%=      5-min Rain = 0
KCO2 132004Z 20004KT 29/05 A2993 RMK A01 T02940053  RH  022%=      5-min Rain = 0
KCO2 132005Z 19003KT 30/05 A2993 RMK A01 T02960052  RH  021%=      5-min Rain = 0
KCO2 132006Z 23005KT 30/05 A2993 RMK A01 T02960053  RH  021%=      5-min Rain = 0
KCO2 132007Z 23007KT 30/05 A2993 RMK A01 T02990053  RH  021%=      5-min Rain = 0
KCO2 132008Z 22008KT 30/05 A2993 RMK A01 T03020051  RH  020%=      5-min Rain = 0
KCO2 132009Z 22007KT 30/05 A2993 RMK A01 T03000050  RH  020%=      5-min Rain = 0
KCO2 132010Z 26004KT 30/05 A2993 RMK A01 T02970049  RH  021%=      5-min Rain = 0
KCO2 132011Z 21004KT 30/05 A2993 RMK A01 T02970051  RH  021%=      5-min Rain = 0
KCO2 132012Z 21004KT 30/05 A2993 RMK A01 T03000051  RH  021%=      5-min Rain = 0
KCO2 132013Z 21004KT 30/05 A2993 RMK A01 T03010051  RH  021%=      5-min Rain = 0
KCO2 132014Z 23006KT 30/05 A2993 RMK A01 T03020053  RH  021%=      5-min Rain = 0
KCO2 132015Z 22006KT 31/05 A2993 RMK A01 T03050052  RH  020%=      5-min Rain = 0
KCO2 132016Z 25007KT 31/05 A2993 RMK A01 T03050051  RH  020%=      5-min Rain = 0
KCO2 132017Z 22006KT 31/05 A2993 RMK A01 T03050052  RH  020%=      5-min Rain = 0
KCO2 132018Z 23005KT 31/05 A2993 RMK A01 T03060051  RH  020%=      5-min Rain = 0
KCO2 132019Z 24004KT 30/05 A2993 RMK A01 T03040049  RH  020%=      5-min Rain = 0
KCO2 132020Z 20003KT 30/05 A2993 RMK A01 T03020049  RH  020%=      5-min Rain = 0
KCO2 132021Z 18007KT 30/05 A2993 RMK A01 T03020051  RH  021%=      5-min Rain = 0
KCO2 132022Z 22008KT 31/05 A2993 RMK A01 T03050053  RH  020%=      5-min Rain = 0
KCO2 132023Z 23009KT 31/06 A2993 RMK A01 T03080055  RH  020%=      5-min Rain = 0
KCO2 132024Z 24009KT 31/05 A2993 RMK A01 T03100052  RH  020%=      5-min Rain = 0
KCO2 132025Z 25008KT 31/05 A2993 RMK A01 T03050051  RH  020%=      5-min Rain = 0
KCO2 132026Z 26007KT 30/05 A2993 RMK A01 T03030053  RH  021%=      5-min Rain = 0
KCO2 132027Z 26004KT 30/05 A2993 RMK A01 T03040052  RH  020%=      5-min Rain = 0
KCO2 132028Z 28003KT 30/05 A2993 RMK A01 T03030052  RH  021%=      5-min Rain = 0
KCO2 132029Z 25003KT 30/05 A2993 RMK A01 T03010051  RH  021%=      5-min Rain = 0
KCO2 132030Z 21003KT 30/05 A2993 RMK A01 T02990050  RH  021%=      5-min Rain = 0
KCO2 132031Z 19007KT 30/05 A2993 RMK A01 T02980052  RH  021%=      5-min Rain = 0
KCO2 132032Z 19006KT 30/06 A2993 RMK A01 T03030055  RH  021%=      5-min Rain = 0
KCO2 132033Z 18004KT 31/05 A2993 RMK A01 T03060053  RH  020%=      5-min Rain = 0
KCO2 132034Z 20004KT 31/05 A2993 RMK A01 T03050052  RH  020%=      5-min Rain = 0
KCO2 132035Z 20007KT 31/05 A2993 RMK A01 T03050054  RH  020%=      5-min Rain = 0
KCO2 132036Z 20007KT 31/05 A2993 RMK A01 T03050054  RH  021%=      5-min Rain = 0
KCO2 132037Z 20005G10KT 31/05 A2993 RMK A01 T03050054  RH  021%=      5-min Rain = 0
KCO2 132038Z 21005KT 31/06 A2993 RMK A01 T03050055  RH  021%=      5-min Rain = 0
KCO2 132039Z 18003KT 31/06 A2993 RMK A01 T03070055  RH  020%=      5-min Rain = 0
KCO2 132040Z 16006KT 31/05 A2992 RMK A01 T03080054  RH  020%=      5-min Rain = 0
KCO2 132041Z 18005KT 31/05 A2992 RMK A01 T03060054  RH  020%=      5-min Rain = 0
KCO2 132042Z 20004KT 30/05 A2992 RMK A01 T03040054  RH  021%=      5-min Rain = 0
KCO2 132043Z 24005KT 30/05 A2992 RMK A01 T03040054  RH  021%=      5-min Rain = 0
KCO2 132044Z 21005KT 31/05 A2992 RMK A01 T03050052  RH  020%=      5-min Rain = 0
KCO2 132045Z 21004KT 31/05 A2992 RMK A01 T03050052  RH  020%=      5-min Rain = 0
KCO2 132046Z 20005KT 31/05 A2992 RMK A01 T03050053  RH  020%=      5-min Rain = 0
KCO2 132047Z 21009KT 31/05 A2992 RMK A01 T03070054  RH  020%=      5-min Rain = 0
KCO2 132048Z 22009KT 31/05 A2992 RMK A01 T03090054  RH  020%=      5-min Rain = 0
KCO2 132049Z 21008KT 31/05 A2992 RMK A01 T03090054  RH  020%=      5-min Rain = 0
KCO2 132050Z 21008KT 31/05 A2992 RMK A01 T03090053  RH  020%=      5-min Rain = 0
KCO2 132051Z 22008KT 31/05 A2992 RMK A01 T03090053  RH  020%=      5-min Rain = 0
KCO2 132052Z 23007KT 31/05 A2992 RMK A01 T03070051  RH  020%=      5-min Rain = 0
KCO2 132053Z 21005KT 30/05 A2992 RMK A01 T03040051  RH  020%=      5-min Rain = 0
KCO2 132054Z 20005KT 30/05 A2992 RMK A01 T03040051  RH  020%=      5-min Rain = 0
KCO2 132055Z 21010KT 31/05 A2992 RMK A01 T03050052  RH  020%=      5-min Rain = 0
KCO2 132056Z 22009KT 31/05 A2992 RMK A01 T03070053  RH  020%=      5-min Rain = 0
KCO2 132057Z 24007KT 31/05 A2992 RMK A01 T03070053  RH  020%=      5-min Rain = 0
KCO2 132058Z 24007KT 31/05 A2992 RMK A01 T03080053  RH  020%=      5-min Rain = 0
KCO2 132059Z 24004KT 31/05 A2992 RMK A01 T03060052  RH  020%=      5-min Rain = 0
KCO2 132100Z 23005KT 31/05 A2992 RMK A01 T03050053  RH  020%=      5-min Rain = 0
KCO2 132101Z 22008KT 31/05 A2992 RMK A01 T03070054  RH  020%=      5-min Rain = 0
KCO2 132102Z 23007KT 31/05 A2992 RMK A01 T03080052  RH  020%=      5-min Rain = 0
KCO2 132103Z 21007KT 31/05 A2992 RMK A01 T03060053  RH  020%=      5-min Rain = 0
KCO2 132104Z 22007KT 31/05 A2992 RMK A01 T03050052  RH  020%=      5-min Rain = 0
KCO2 132105Z 22005KT 31/05 A2992 RMK A01 T03050052  RH  020%=      5-min Rain = 0
KCO2 132106Z 22008KT 31/06 A2992 RMK A01 T03070056  RH  021%=      5-min Rain = 0
KCO2 132107Z 20005KT 31/06 A2992 RMK A01 T03110055  RH  020%=      5-min Rain = 0
KCO2 132108Z 24006KT 31/06 A2992 RMK A01 T03120056  RH  020%=      5-min Rain = 0
KCO2 132109Z 24011KT 31/06 A2992 RMK A01 T03140055  RH  020%=      5-min Rain = 0
KCO2 132110Z 23006KT 31/05 A2992 RMK A01 T03110053  RH  020%=      5-min Rain = 0
KCO2 132111Z 24003KT 31/05 A2992 RMK A01 T03080053  RH  020%=      5-min Rain = 0
KCO2 132112Z 25006KT 31/05 A2992 RMK A01 T03060054  RH  020%=      5-min Rain = 0
KCO2 132113Z 24007KT 31/05 A2992 RMK A01 T03070054  RH  020%=      5-min Rain = 0
KCO2 132114Z 23004KT 31/05 A2992 RMK A01 T03070053  RH  020%=      5-min Rain = 0
KCO2 132115Z 23005KT 31/05 A2992 RMK A01 T03060054  RH  020%=      5-min Rain = 0
KCO2 132116Z 23005KT 31/05 A2992 RMK A01 T03060053  RH  020%=      5-min Rain = 0
KCO2 132117Z 25004KT 31/05 A2992 RMK A01 T03050053  RH  020%=      5-min Rain = 0
KCO2 132118Z 27006KT 30/06 A2992 RMK A01 T03040055  RH  021%=      5-min Rain = 0
KCO2 132119Z 27004KT 30/06 A2992 RMK A01 T03040055  RH  021%=      5-min Rain = 0
KCO2 132120Z 24003KT 31/05 A2992 RMK A01 T03050053  RH  020%=      5-min Rain = 0
KCO2 132121Z 24003KT 31/05 A2992 RMK A01 T03050053  RH  021%=      5-min Rain = 0
KCO2 132122Z 23005KT 31/06 A2992 RMK A01 T03050055  RH  021%=      5-min Rain = 0
KCO2 132123Z 21005KT 31/06 A2992 RMK A01 T03060055  RH  020%=      5-min Rain = 0
KCO2 132124Z 22008KT 31/05 A2992 RMK A01 T03090054  RH  020%=      5-min Rain = 0
KCO2 132125Z 21007KT 31/05 A2992 RMK A01 T03080052  RH  020%=      5-min Rain = 0
KCO2 132126Z 19008KT 31/05 A2992 RMK A01 T03070053  RH  020%=      5-min Rain = 0
KCO2 132127Z 19007KT 31/05 A2992 RMK A01 T03090054  RH  020%=      5-min Rain = 0
KCO2 132128Z 22005KT 31/05 A2992 RMK A01 T03100054  RH  020%=      5-min Rain = 0
KCO2 132129Z 23006G11KT 31/05 A2992 RMK A01 T03100054  RH  020%=      5-min Rain = 0
KCO2 132130Z 24009KT 31/05 A2992 RMK A01 T03120054  RH  020%=      5-min Rain = 0
KCO2 132131Z 24006KT 31/05 A2992 RMK A01 T03120052  RH  019%=      5-min Rain = 0
KCO2 132132Z 24007KT 31/05 A2992 RMK A01 T03100052  RH  020%=      5-min Rain = 0
KCO2 132133Z 23005KT 31/05 A2992 RMK A01 T03100052  RH  020%=      5-min Rain = 0
KCO2 132134Z 22004KT 31/05 A2992 RMK A01 T03110053  RH  020%=      5-min Rain = 0
KCO2 132135Z 23005KT 31/05 A2992 RMK A01 T03130053  RH  019%=      5-min Rain = 0
KCO2 132136Z 23004KT 31/05 A2992 RMK A01 T03130052  RH  019%=      5-min Rain = 0
KCO2 132137Z 22004KT 31/05 A2992 RMK A01 T03110052  RH  020%=      5-min Rain = 0
KCO2 132138Z 22005KT 31/05 A2992 RMK A01 T03100052  RH  020%=      5-min Rain = 0
KCO2 132139Z 20003KT 31/05 A2992 RMK A01 T03090052  RH  020%=      5-min Rain = 0
KCO2 132140Z 19005KT 31/05 A2992 RMK A01 T03090052  RH  020%=      5-min Rain = 0
KCO2 132141Z 19006KT 31/05 A2992 RMK A01 T03100052  RH  020%=      5-min Rain = 0
KCO2 132142Z 21010KT 31/05 A2991 RMK A01 T03120053  RH  020%=      5-min Rain = 0
KCO2 132143Z 24007KT 31/06 A2992 RMK A01 T03140055  RH  020%=      5-min Rain = 0
KCO2 132144Z 25007KT 31/05 A2992 RMK A01 T03140053  RH  019%=      5-min Rain = 0
KCO2 132145Z 26005KT 31/05 A2992 RMK A01 T03130054  RH  020%=      5-min Rain = 0
KCO2 132146Z 27007KT 31/05 A2992 RMK A01 T03120054  RH  020%=      5-min Rain = 0
KCO2 132147Z 27006KT 31/05 A2991 RMK A01 T03120051  RH  019%=      5-min Rain = 0
KCO2 132148Z 24004KT 31/05 A2991 RMK A01 T03090050  RH  020%=      5-min Rain = 0
KCO2 132149Z 25005KT 31/05 A2992 RMK A01 T03090052  RH  020%=      5-min Rain = 0
KCO2 132150Z 21007KT 31/05 A2991 RMK A01 T03110053  RH  020%=      5-min Rain = 0
KCO2 132151Z 21008KT 31/05 A2992 RMK A01 T03110053  RH  020%=      5-min Rain = 0
KCO2 132152Z 20006KT 31/05 A2991 RMK A01 T03090052  RH  020%=      5-min Rain = 0
KCO2 132153Z 22002KT 31/05 A2991 RMK A01 T03080052  RH  020%=      5-min Rain = 0
KCO2 132154Z 19002KT 31/05 A2991 RMK A01 T03070053  RH  020%=      5-min Rain = 0
KCO2 132155Z 18005KT 31/05 A2991 RMK A01 T03090050  RH  020%=      5-min Rain = 0
KCO2 132156Z 23009KT 31/05 A2991 RMK A01 T03100052  RH  020%=      5-min Rain = 0
KCO2 132157Z 23008KT 31/05 A2991 RMK A01 T03120052  RH  020%=      5-min Rain = 0
KCO2 132158Z 24008KT 31/05 A2991 RMK A01 T03120052  RH  019%=      5-min Rain = 0
KCO2 132159Z 25008KT 31/05 A2991 RMK A01 T03130053  RH  019%=      5-min Rain = 0
KCO2 132200Z 25006KT 31/05 A2991 RMK A01 T03110053  RH  020%=      5-min Rain = 0
KCO2 132201Z 25005KT 31/05 A2991 RMK A01 T03100053  RH  020%=      5-min Rain = 0
KCO2 132202Z 27004KT 31/05 A2991 RMK A01 T03090053  RH  020%=      5-min Rain = 0
KCO2 132203Z 27005KT 31/05 A2991 RMK A01 T03100054  RH  020%=      5-min Rain = 0
KCO2 132204Z 23006KT 31/05 A2991 RMK A01 T03100054  RH  020%=      5-min Rain = 0
KCO2 132205Z 22006KT 31/05 A2991 RMK A01 T03110054  RH  020%=      5-min Rain = 0
KCO2 132206Z 24005KT 31/05 A2991 RMK A01 T03110052  RH  020%=      5-min Rain = 0
KCO2 132207Z 26005KT 31/05 A2991 RMK A01 T03100053  RH  020%=      5-min Rain = 0
KCO2 132208Z 24008KT 31/05 A2991 RMK A01 T03090054  RH  020%=      5-min Rain = 0
KCO2 132209Z 20009KT 31/05 A2991 RMK A01 T03100054  RH  020%=      5-min Rain = 0
KCO2 132210Z 20006KT 31/05 A2991 RMK A01 T03120052  RH  020%=      5-min Rain = 0
KCO2 132211Z 23007KT 31/05 A2991 RMK A01 T03130053  RH  019%=      5-min Rain = 0
KCO2 132212Z 22009KT 31/05 A2991 RMK A01 T03130051  RH  019%=      5-min Rain = 0
KCO2 132213Z 23007KT 31/05 A2991 RMK A01 T03110051  RH  019%=      5-min Rain = 0
KCO2 132214Z 23008KT 31/05 A2991 RMK A01 T03080051  RH  020%=      5-min Rain = 0
KCO2 132215Z 24007KT 31/05 A2991 RMK A01 T03080051  RH  020%=      5-min Rain = 0
KCO2 132216Z 23007KT 31/05 A2991 RMK A01 T03070050  RH  020%=      5-min Rain = 0
KCO2 132217Z 23006KT 31/05 A2991 RMK A01 T03070051  RH  020%=      5-min Rain = 0
KCO2 132218Z 23005KT 31/05 A2991 RMK A01 T03070050  RH  020%=      5-min Rain = 0
KCO2 132219Z 21005KT 31/05 A2991 RMK A01 T03060051  RH  020%=      5-min Rain = 0
KCO2 132220Z 24007KT 31/05 A2991 RMK A01 T03080052  RH  020%=      5-min Rain = 0
KCO2 132221Z 25007KT 31/05 A2991 RMK A01 T03090053  RH  020%=      5-min Rain = 0
KCO2 132222Z 23006KT 31/05 A2991 RMK A01 T03100053  RH  020%=      5-min Rain = 0
KCO2 132223Z 22007KT 31/05 A2991 RMK A01 T03100053  RH  020%=      5-min Rain = 0
KCO2 132224Z 24009KT 31/05 A2991 RMK A01 T03110052  RH  020%=      5-min Rain = 0
KCO2 132225Z 24009KT 31/05 A2991 RMK A01 T03110051  RH  019%=      5-min Rain = 0
KCO2 132226Z 25007KT 31/05 A2991 RMK A01 T03100050  RH  019%=      5-min Rain = 0
KCO2 132227Z 25007KT 31/05 A2991 RMK A01 T03090052  RH  020%=      5-min Rain = 0
KCO2 132228Z 23006KT 31/05 A2991 RMK A01 T03100052  RH  020%=      5-min Rain = 0
KCO2 132229Z 25005KT 31/05 A2991 RMK A01 T03100052  RH  020%=      5-min Rain = 0
KCO2 132230Z 25009KT 31/05 A2991 RMK A01 T03090053  RH  020%=      5-min Rain = 0
KCO2 132231Z 25008KT 31/05 A2991 RMK A01 T03090053  RH  020%=      5-min Rain = 0
KCO2 132232Z 25006KT 31/05 A2991 RMK A01 T03090053  RH  020%=      5-min Rain = 0
KCO2 132233Z 26007KT 31/05 A2991 RMK A01 T03100053  RH  020%=      5-min Rain = 0
KCO2 132234Z 25006KT 31/05 A2991 RMK A01 T03100052  RH  020%=      5-min Rain = 0
KCO2 132235Z 25005KT 31/05 A2991 RMK A01 T03090053  RH  020%=      5-min Rain = 0
KCO2 132236Z 25005KT 31/05 A2991 RMK A01 T03090054  RH  020%=      5-min Rain = 0
KCO2 132237Z 26006KT 31/06 A2991 RMK A01 T03100055  RH  020%=      5-min Rain = 0
KCO2 132238Z 26005KT 31/06 A2991 RMK A01 T03110055  RH  020%=      5-min Rain = 0
KCO2 132239Z 27004KT 31/05 A2991 RMK A01 T03110054  RH  020%=      5-min Rain = 0
KCO2 132240Z 25003KT 31/05 A2991 RMK A01 T03100054  RH  020%=      5-min Rain = 0
KCO2 132241Z 23004KT 31/06 A2991 RMK A01 T03100055  RH  020%=      5-min Rain = 0
KCO2 132242Z 21005KT 31/06 A2991 RMK A01 T03120056  RH  020%=      5-min Rain = 0
KCO2 132243Z 19006KT 31/06 A2991 RMK A01 T03130055  RH  020%=      5-min Rain = 0
KCO2 132244Z 20007KT 31/05 A2991 RMK A01 T03140054  RH  019%=      5-min Rain = 0
KCO2 132245Z 21007KT 31/05 A2991 RMK A01 T03130051  RH  019%=      5-min Rain = 0
KCO2 132246Z 23004KT 31/05 A2991 RMK A01 T03090051  RH  020%=      5-min Rain = 0
KCO2 132247Z 23002KT 31/05 A2991 RMK A01 T03080050  RH  020%=      5-min Rain = 0
KCO2 132248Z 23005KT 31/05 A2991 RMK A01 T03080052  RH  020%=      5-min Rain = 0
KCO2 132249Z 22005KT 31/05 A2991 RMK A01 T03080052  RH  020%=      5-min Rain = 0
KCO2 132250Z 23006KT 31/05 A2991 RMK A01 T03080051  RH  020%=      5-min Rain = 0
KCO2 132251Z 24006KT 31/05 A2991 RMK A01 T03080052  RH  020%=      5-min Rain = 0
KCO2 132252Z 22007KT 31/05 A2991 RMK A01 T03080051  RH  020%=      5-min Rain = 0
KCO2 132253Z 22008KT 31/05 A2991 RMK A01 T03070052  RH  020%=      5-min Rain = 0
KCO2 132254Z 23007KT 31/05 A2991 RMK A01 T03070053  RH  020%=      5-min Rain = 0
KCO2 132255Z 23008KT 31/05 A2991 RMK A01 T03070054  RH  020%=      5-min Rain = 0
KCO2 132256Z 23009KT 31/05 A2991 RMK A01 T03070054  RH  020%=      5-min Rain = 0
KCO2 132257Z 22008KT 31/05 A2991 RMK A01 T03060054  RH  020%=      5-min Rain = 0
KCO2 132258Z 23009KT 31/05 A2991 RMK A01 T03050054  RH  021%=      5-min Rain = 0
KCO2 132259Z 23008KT 31/05 A2991 RMK A01 T03050054  RH  021%=      5-min Rain = 0
KCO2 132300Z 23009KT 30/05 A2991 RMK A01 T03040053  RH  021%=      5-min Rain = 0
KCO2 132301Z 21008KT 30/05 A2991 RMK A01 T03030053  RH  021%=      5-min Rain = 0
KCO2 132302Z 20009KT 30/05 A2991 RMK A01 T03020052  RH  021%=      5-min Rain = 0
KCO2 132303Z 21008KT 30/05 A2991 RMK A01 T03010051  RH  020%=      5-min Rain = 0
KCO2 132304Z 22007KT 30/05 A2991 RMK A01 T03010051  RH  021%=      5-min Rain = 0
KCO2 132305Z 21007KT 30/05 A2991 RMK A01 T03010051  RH  021%=      5-min Rain = 0
KCO2 132306Z 22006KT 30/05 A2991 RMK A01 T03010051  RH  021%=      5-min Rain = 0
KCO2 132307Z 22005KT 30/05 A2991 RMK A01 T03010051  RH  021%=      5-min Rain = 0
KCO2 132308Z 22005KT 30/05 A2991 RMK A01 T03000052  RH  021%=      5-min Rain = 0
KCO2 132309Z 21005KT 30/05 A2991 RMK A01 T03000053  RH  021%=      5-min Rain = 0
KCO2 132310Z 20005KT 30/05 A2991 RMK A01 T03000051  RH  021%=      5-min Rain = 0
KCO2 132311Z 20005KT 30/05 A2991 RMK A01 T03000052  RH  021%=      5-min Rain = 0
KCO2 132312Z 23005KT 30/05 A2991 RMK A01 T03010053  RH  021%=      5-min Rain = 0
KCO2 132313Z 23006KT 30/05 A2991 RMK A01 T03020052  RH  021%=      5-min Rain = 0
KCO2 132314Z 23006KT 30/05 A2991 RMK A01 T03020052  RH  021%=      5-min Rain = 0
KCO2 132315Z 21007KT 30/05 A2991 RMK A01 T03010052  RH  021%=      5-min Rain = 0
KCO2 132316Z 21007KT 30/05 A2991 RMK A01 T03010052  RH  021%=      5-min Rain = 0
KCO2 132317Z 23006KT 30/05 A2991 RMK A01 T03000051  RH  021%=      5-min Rain = 0
KCO2 132318Z 22009KT 30/05 A2991 RMK A01 T02980050  RH  021%=      5-min Rain = 0
KCO2 132319Z 23009KT 30/05 A2991 RMK A01 T02970049  RH  021%=      5-min Rain = 0
KCO2 132320Z 21008KT 30/05 A2991 RMK A01 T02960049  RH  021%=      5-min Rain = 0
KCO2 132321Z 22009KT 29/05 A2991 RMK A01 T02940049  RH  021%=      5-min Rain = 0
KCO2 132322Z 23009KT 29/05 A2991 RMK A01 T02940048  RH  021%=      5-min Rain = 0
KCO2 132323Z 22009KT 29/05 A2991 RMK A01 T02940048  RH  021%=      5-min Rain = 0
KCO2 132324Z 21008KT 29/05 A2991 RMK A01 T02930048  RH  021%=      5-min Rain = 0
KCO2 132325Z 21008KT 29/05 A2992 RMK A01 T02920048  RH  021%=      5-min Rain = 0
KCO2 132326Z 21008KT 29/05 A2991 RMK A01 T02920048  RH  021%=      5-min Rain = 0
KCO2 132327Z 21007KT 29/05 A2992 RMK A01 T02910048  RH  021%=      5-min Rain = 0
KCO2 132328Z 20009KT 29/05 A2992 RMK A01 T02900048  RH  021%=      5-min Rain = 0
KCO2 132329Z 20008KT 29/05 A2992 RMK A01 T02900048  RH  021%=      5-min Rain = 0
KCO2 132330Z 20007KT 29/05 A2992 RMK A01 T02900048  RH  022%=      5-min Rain = 0
KCO2 132331Z 21007KT 29/05 A2992 RMK A01 T02890048  RH  022%=      5-min Rain = 0
KCO2 132332Z 21007KT 29/05 A2992 RMK A01 T02880048  RH  022%=      5-min Rain = 0
KCO2 132333Z 21006KT 29/05 A2992 RMK A01 T02870048  RH  022%=      5-min Rain = 0
KCO2 132334Z 20007KT 29/05 A2992 RMK A01 T02870049  RH  022%=      5-min Rain = 0
KCO2 132335Z 21006KT 29/05 A2992 RMK A01 T02860049  RH  022%=      5-min Rain = 0
KCO2 132336Z 21006KT 29/05 A2992 RMK A01 T02850049  RH  022%=      5-min Rain = 0
KCO2 132337Z 22006KT 28/05 A2992 RMK A01 T02840049  RH  022%=      5-min Rain = 0
KCO2 132338Z 22006KT 28/05 A2992 RMK A01 T02830049  RH  023%=      5-min Rain = 0
KCO2 132339Z 22006KT 28/05 A2992 RMK A01 T02830050  RH  023%=      5-min Rain = 0
KCO2 132340Z 21005KT 28/05 A2992 RMK A01 T02820050  RH  023%=      5-min Rain = 0
KCO2 132341Z 21006KT 28/05 A2992 RMK A01 T02810050  RH  023%=      5-min Rain = 0
KCO2 132342Z 21007KT 28/05 A2992 RMK A01 T02800051  RH  023%=      5-min Rain = 0
KCO2 132343Z 21006KT 28/05 A2992 RMK A01 T02790050  RH  023%=      5-min Rain = 0
KCO2 132344Z 21006KT 28/05 A2992 RMK A01 T02780050  RH  023%=      5-min Rain = 0
KCO2 132345Z 21006KT 28/05 A2992 RMK A01 T02780050  RH  023%=      5-min Rain = 0
KCO2 132346Z 21005KT 28/05 A2992 RMK A01 T02780050  RH  023%=      5-min Rain = 0
KCO2 132347Z 21005KT 28/05 A2992 RMK A01 T02770051  RH  024%=      5-min Rain = 0
KCO2 132348Z 21005KT 28/05 A2992 RMK A01 T02760051  RH  024%=      5-min Rain = 0
KCO2 132349Z 21005KT 28/05 A2992 RMK A01 T02750051  RH  024%=      5-min Rain = 0
KCO2 132350Z 21005KT 27/05 A2992 RMK A01 T02730050  RH  024%=      5-min Rain = 0
KCO2 132351Z 21005KT 27/05 A2992 RMK A01 T02720051  RH  024%=      5-min Rain = 0
KCO2 132352Z 21005KT 27/05 A2992 RMK A01 T02710051  RH  025%=      5-min Rain = 0
KCO2 132353Z 22005KT 27/05 A2992 RMK A01 T02700051  RH  025%=      5-min Rain = 0
KCO2 132354Z 22005KT 27/05 A2992 RMK A01 T02680051  RH  025%=      5-min Rain = 0
KCO2 132355Z 21005KT 27/05 A2992 RMK A01 T02670051  RH  025%=      5-min Rain = 0
KCO2 132356Z 21004KT 27/05 A2992 RMK A01 T02660051  RH  025%=      5-min Rain = 0
KCO2 132357Z 21005KT 27/05 A2992 RMK A01 T02650051  RH  025%=      5-min Rain = 0
KCO2 132358Z 21005KT 26/05 A2992 RMK A01 T02640052  RH  026%=      5-min Rain = 0
KCO2 132359Z 21005KT 26/05 A2992 RMK A01 T02620051  RH  026%=      5-min Rain = 0
KCO2 140000Z 21005KT 26/05 A2992 RMK A01 T02620051  RH  026%=      5-min Rain = 0
KCO2 140001Z 21005KT 26/05 A2992 RMK A01 T02610052  RH  026%=      5-min Rain = 0
KCO2 140002Z 20005KT 26/05 A2992 RMK A01 T02600051  RH  026%=      5-min Rain = 0
KCO2 140003Z 20005KT 26/05 A2992 RMK A01 T02590051  RH  026%=      5-min Rain = 0
KCO2 140004Z 20005KT 26/05 A2992 RMK A01 T02590052  RH  026%=      5-min Rain = 0
KCO2 140005Z 20005KT 26/05 A2992 RMK A01 T02580052  RH  026%=      5-min Rain = 0
KCO2 140006Z 20005KT 26/05 A2992 RMK A01 T02580051  RH  027%=      5-min Rain = 0
KCO2 140007Z 19004KT 26/05 A2993 RMK A01 T02560051  RH  027%=      5-min Rain = 0
KCO2 140008Z 18005KT 26/05 A2993 RMK A01 T02550052  RH  027%=      5-min Rain = 0
KCO2 140009Z 19006KT 25/05 A2993 RMK A01 T02530052  RH  027%=      5-min Rain = 0
KCO2 140010Z 19006KT 25/05 A2993 RMK A01 T02510052  RH  028%=      5-min Rain = 0
KCO2 140011Z 19006KT 25/05 A2993 RMK A01 T02480051  RH  028%=      5-min Rain = 0
KCO2 140012Z 19006KT 25/05 A2993 RMK A01 T02480052  RH  028%=      5-min Rain = 0
KCO2 140013Z 19006KT 25/05 A2993 RMK A01 T02470052  RH  028%=      5-min Rain = 0
KCO2 140014Z 19006KT 25/05 A2993 RMK A01 T02460052  RH  029%=      5-min Rain = 0
KCO2 140015Z 19006KT 25/05 A2993 RMK A01 T02450052  RH  029%=      5-min Rain = 0
KCO2 140016Z 19006KT 25/05 A2993 RMK A01 T02450052  RH  029%=      5-min Rain = 0
KCO2 140017Z 19006KT 25/05 A2993 RMK A01 T02450052  RH  029%=      5-min Rain = 0
KCO2 140018Z 19006KT 24/05 A2993 RMK A01 T02440052  RH  029%=      5-min Rain = 0
KCO2 140019Z 19007KT 24/05 A2993 RMK A01 T02430052  RH  029%=      5-min Rain = 0
KCO2 140020Z 19006KT 24/05 A2993 RMK A01 T02420052  RH  029%=      5-min Rain = 0
KCO2 140021Z 19007KT 24/05 A2993 RMK A01 T02400051  RH  029%=      5-min Rain = 0
KCO2 140022Z 19007KT 24/05 A2993 RMK A01 T02400052  RH  030%=      5-min Rain = 0
KCO2 140023Z 19007KT 24/05 A2993 RMK A01 T02390052  RH  030%=      5-min Rain = 0
KCO2 140024Z 18007KT 24/05 A2993 RMK A01 T02390052  RH  030%=      5-min Rain = 0
KCO2 140025Z 18007KT 24/05 A2993 RMK A01 T02390052  RH  030%=      5-min Rain = 0
KCO2 140026Z 19007KT 24/05 A2993 RMK A01 T02380052  RH  030%=      5-min Rain = 0
KCO2 140027Z 19006KT 24/05 A2993 RMK A01 T02380052  RH  030%=      5-min Rain = 0
KCO2 140028Z 18006KT 24/05 A2993 RMK A01 T02380052  RH  030%=      5-min Rain = 0
KCO2 140029Z 18005KT 24/05 A2993 RMK A01 T02380052  RH  030%=      5-min Rain = 0
KCO2 140030Z 18005KT 24/05 A2993 RMK A01 T02380052  RH  030%=      5-min Rain = 0
KCO2 140031Z 18005KT 24/05 A2993 RMK A01 T02370052  RH  030%=      5-min Rain = 0
KCO2 140032Z 18005KT 24/05 A2993 RMK A01 T02380052  RH  030%=      5-min Rain = 0
KCO2 140033Z 18005KT 24/05 A2993 RMK A01 T02380052  RH  030%=      5-min Rain = 0
KCO2 140034Z 18005KT 24/05 A2993 RMK A01 T02390052  RH  030%=      5-min Rain = 0
KCO2 140035Z 18006KT 24/05 A2993 RMK A01 T02400052  RH  030%=      5-min Rain = 0
KCO2 140036Z 18006KT 24/05 A2993 RMK A01 T02400052  RH  030%=      5-min Rain = 0
KCO2 140037Z 18006KT 24/05 A2993 RMK A01 T02400052  RH  030%=      5-min Rain = 0
KCO2 140038Z 18007KT 24/05 A2993 RMK A01 T02390052  RH  030%=      5-min Rain = 0
KCO2 140039Z 18007KT 24/05 A2993 RMK A01 T02380052  RH  030%=      5-min Rain = 0
KCO2 140040Z 18007KT 24/05 A2993 RMK A01 T02370053  RH  030%=      5-min Rain = 0
KCO2 140041Z 18007KT 24/05 A2993 RMK A01 T02350053  RH  031%=      5-min Rain = 0
KCO2 140042Z 18007KT 23/05 A2994 RMK A01 T02340053  RH  031%=      5-min Rain = 0
KCO2 140043Z 18007KT 23/05 A2994 RMK A01 T02340053  RH  031%=      5-min Rain = 0
KCO2 140044Z 18007KT 24/05 A2994 RMK A01 T02360054  RH  031%=      5-min Rain = 0
KCO2 140045Z 18007KT 24/05 A2994 RMK A01 T02370054  RH  031%=      5-min Rain = 0
KCO2 140046Z 19007KT 24/06 A2994 RMK A01 T02390055  RH  030%=      5-min Rain = 0
KCO2 140047Z 19007KT 24/06 A2994 RMK A01 T02400055  RH  030%=      5-min Rain = 0
KCO2 140048Z 19007KT 24/06 A2994 RMK A01 T02410055  RH  030%=      5-min Rain = 0
KCO2 140049Z 19007KT 24/06 A2994 RMK A01 T02420055  RH  030%=      5-min Rain = 0
KCO2 140050Z 19007KT 24/06 A2994 RMK A01 T02430055  RH  030%=      5-min Rain = 0
KCO2 140051Z 19007KT 25/06 A2994 RMK A01 T02450056  RH  030%=      5-min Rain = 0
KCO2 140052Z 19007KT 25/06 A2994 RMK A01 T02450056  RH  030%=      5-min Rain = 0
KCO2 140053Z 19007KT 25/06 A2994 RMK A01 T02460056  RH  029%=      5-min Rain = 0
KCO2 140054Z 19007KT 25/06 A2994 RMK A01 T02460056  RH  029%=      5-min Rain = 0
KCO2 140055Z 19007KT 25/06 A2994 RMK A01 T02460056  RH  029%=      5-min Rain = 0
KCO2 140056Z 19006KT 25/06 A2994 RMK A01 T02460056  RH  029%=      5-min Rain = 0
KCO2 140057Z 19006KT 25/06 A2994 RMK A01 T02460057  RH  030%=      5-min Rain = 0
KCO2 140058Z 19006KT 25/06 A2994 RMK A01 T02460057  RH  030%=      5-min Rain = 0
KCO2 140059Z 19006KT 25/06 A2995 RMK A01 T02460057  RH  030%=      5-min Rain = 0
KCO2 140100Z 19006KT 25/06 A2995 RMK A01 T02460057  RH  030%=      5-min Rain = 0
KCO2 140101Z 18006KT 25/06 A2995 RMK A01 T02450057  RH  030%=      5-min Rain = 0
KCO2 140102Z 19006KT 24/06 A2995 RMK A01 T02440058  RH  030%=      5-min Rain = 0
KCO2 140103Z 18006KT 24/06 A2995 RMK A01 T02430058  RH  030%=      5-min Rain = 0
KCO2 140104Z 18006KT 24/06 A2995 RMK A01 T02420058  RH  030%=      5-min Rain = 0
KCO2 140105Z 18005KT 24/06 A2995 RMK A01 T02410058  RH  031%=      5-min Rain = 0
KCO2 140106Z 18006KT 24/06 A2994 RMK A01 T02400058  RH  031%=      5-min Rain = 0
KCO2 140107Z 18005KT 24/06 A2994 RMK A01 T02400058  RH  031%=      5-min Rain = 0
KCO2 140108Z 17005KT 24/06 A2994 RMK A01 T02390058  RH  031%=      5-min Rain = 0
KCO2 140109Z 17006KT 24/06 A2994 RMK A01 T02390059  RH  031%=      5-min Rain = 0
KCO2 140110Z 17006KT 24/06 A2994 RMK A01 T02370059  RH  032%=      5-min Rain = 0
KCO2 140111Z 17006KT 24/06 A2994 RMK A01 T02370059  RH  032%=      5-min Rain = 0
KCO2 140112Z 17006KT 24/06 A2994 RMK A01 T02370060  RH  032%=      5-min Rain = 0
KCO2 140113Z 16007KT 24/06 A2994 RMK A01 T02370060  RH  032%=      5-min Rain = 0
KCO2 140114Z 15007KT 24/06 A2995 RMK A01 T02360060  RH  032%=      5-min Rain = 0
KCO2 140115Z 13007KT 24/06 A2995 RMK A01 T02360059  RH  032%=      5-min Rain = 0
KCO2 140116Z 13007KT 24/06 A2995 RMK A01 T02360060  RH  032%=      5-min Rain = 0
KCO2 140117Z 14007KT 23/06 A2995 RMK A01 T02340060  RH  033%=      5-min Rain = 0
KCO2 140118Z 14007KT 23/06 A2995 RMK A01 T02330060  RH  033%=      5-min Rain = 0
KCO2 140119Z 14007KT 23/06 A2995 RMK A01 T02330060  RH  033%=      5-min Rain = 0
KCO2 140120Z 14007KT 23/06 A2995 RMK A01 T02320060  RH  033%=      5-min Rain = 0
KCO2 140121Z 14006KT 23/06 A2995 RMK A01 T02320060  RH  033%=      5-min Rain = 0
KCO2 140122Z 15006KT 23/06 A2995 RMK A01 T02320060  RH  033%=      5-min Rain = 0
KCO2 140123Z 15006KT 23/06 A2995 RMK A01 T02320060  RH  033%=      5-min Rain = 0
KCO2 140124Z 15006KT 23/06 A2995 RMK A01 T02310060  RH  033%=      5-min Rain = 0
KCO2 140125Z 16006KT 23/06 A2995 RMK A01 T02310060  RH  033%=      5-min Rain = 0
KCO2 140126Z 16007KT 23/06 A2995 RMK A01 T02310059  RH  033%=      5-min Rain = 0
KCO2 140127Z 17007KT 23/06 A2995 RMK A01 T02310059  RH  033%=      5-min Rain = 0
KCO2 140128Z 16007KT 23/06 A2995 RMK A01 T02330058  RH  032%=      5-min Rain = 0
KCO2 140129Z 17007KT 24/06 A2995 RMK A01 T02350059  RH  032%=      5-min Rain = 0
KCO2 140130Z 16007KT 24/06 A2995 RMK A01 T02350058  RH  032%=      5-min Rain = 0
KCO2 140131Z 15006KT 24/06 A2995 RMK A01 T02360058  RH  032%=      5-min Rain = 0
KCO2 140132Z 15006KT 24/06 A2995 RMK A01 T02360059  RH  032%=      5-min Rain = 0
KCO2 140133Z 15006KT 24/06 A2995 RMK A01 T02350059  RH  032%=      5-min Rain = 0
KCO2 140134Z 15006KT 23/06 A2995 RMK A01 T02340059  RH  032%=      5-min Rain = 0
KCO2 140135Z 15007KT 23/06 A2995 RMK A01 T02340058  RH  032%=      5-min Rain = 0
KCO2 140136Z 15007KT 23/06 A2996 RMK A01 T02340058  RH  032%=      5-min Rain = 0
KCO2 140137Z 15007KT 23/06 A2996 RMK A01 T02340058  RH  032%=      5-min Rain = 0
KCO2 140138Z 16007KT 23/06 A2996 RMK A01 T02330058  RH  032%=      5-min Rain = 0
KCO2 140139Z 16008KT 23/06 A2996 RMK A01 T02330058  RH  032%=      5-min Rain = 0
KCO2 140140Z 16008KT 23/06 A2996 RMK A01 T02320057  RH  032%=      5-min Rain = 0
KCO2 140141Z 16007KT 23/06 A2996 RMK A01 T02320057  RH  032%=      5-min Rain = 0
KCO2 140142Z 16007KT 23/06 A2996 RMK A01 T02320056  RH  032%=      5-min Rain = 0
KCO2 140143Z 17009KT 23/06 A2996 RMK A01 T02330056  RH  032%=      5-min Rain = 0
KCO2 140144Z 17007KT 23/06 A2996 RMK A01 T02330056  RH  032%=      5-min Rain = 0
KCO2 140145Z 18008KT 23/06 A2996 RMK A01 T02340056  RH  032%=      5-min Rain = 0
KCO2 140146Z 17007KT 23/06 A2996 RMK A01 T02340056  RH  032%=      5-min Rain = 0
KCO2 140147Z 18008KT 23/06 A2996 RMK A01 T02340056  RH  032%=      5-min Rain = 0
KCO2 140148Z 18009KT 23/06 A2996 RMK A01 T02340056  RH  032%=      5-min Rain = 0
KCO2 140149Z 19010KT 23/06 A2996 RMK A01 T02340056  RH  031%=      5-min Rain = 0
KCO2 140150Z 18010KT 24/06 A2996 RMK A01 T02350056  RH  031%=      5-min Rain = 0
KCO2 140151Z 19009KT 24/06 A2996 RMK A01 T02360056  RH  031%=      5-min Rain = 0
KCO2 140152Z 19013KT 24/06 A2996 RMK A01 T02370056  RH  031%=      5-min Rain = 0
KCO2 140153Z 18008G13KT 24/06 A2996 RMK A01 T02380055  RH  031%=      5-min Rain = 0
KCO2 140154Z 18009KT 24/06 A2996 RMK A01 T02380056  RH  031%=      5-min Rain = 0
KCO2 140155Z 18010KT 24/06 A2996 RMK A01 T02380055  RH  031%=      5-min Rain = 0
KCO2 140156Z 17008KT 24/06 A2996 RMK A01 T02380055  RH  031%=      5-min Rain = 0
KCO2 140157Z 17008KT 24/06 A2996 RMK A01 T02370055  RH  031%=      5-min Rain = 0
KCO2 140158Z 18008KT 24/06 A2996 RMK A01 T02360055  RH  031%=      5-min Rain = 0
KCO2 140159Z 17008KT 24/06 A2996 RMK A01 T02350055  RH  031%=      5-min Rain = 0
KCO2 140200Z 18009KT 24/06 A2997 RMK A01 T02350055  RH  031%=      5-min Rain = 0
KCO2 140201Z 18010KT 23/06 A2997 RMK A01 T02340055  RH  031%=      5-min Rain = 0
KCO2 140202Z 18009KT 23/06 A2997 RMK A01 T02340055  RH  031%=      5-min Rain = 0
KCO2 140203Z 18011KT 23/05 A2997 RMK A01 T02340054  RH  031%=      5-min Rain = 0
KCO2 140204Z 18010KT 23/05 A2997 RMK A01 T02340054  RH  031%=      5-min Rain = 0
KCO2 140205Z 17011KT 23/05 A2997 RMK A01 T02340054  RH  031%=      5-min Rain = 0
KCO2 140206Z 18012KT 23/05 A2997 RMK A01 T02340054  RH  031%=      5-min Rain = 0
KCO2 140207Z 18012KT 24/05 A2997 RMK A01 T02350054  RH  031%=      5-min Rain = 0
KCO2 140208Z 18011KT 24/05 A2997 RMK A01 T02350054  RH  031%=      5-min Rain = 0
KCO2 140209Z 18010KT 24/05 A2997 RMK A01 T02350054  RH  031%=      5-min Rain = 0
KCO2 140210Z 19010KT 24/05 A2997 RMK A01 T02350053  RH  031%=      5-min Rain = 0
KCO2 140211Z 18009KT 24/05 A2997 RMK A01 T02350054  RH  031%=      5-min Rain = 0
KCO2 140212Z 18008KT 23/05 A2997 RMK A01 T02340054  RH  031%=      5-min Rain = 0
KCO2 140213Z 18008KT 23/05 A2997 RMK A01 T02340054  RH  031%=      5-min Rain = 0
KCO2 140214Z 17010KT 23/05 A2997 RMK A01 T02330054  RH  031%=      5-min Rain = 0
KCO2 140215Z 17009KT 23/05 A2997 RMK A01 T02320054  RH  031%=      5-min Rain = 0
KCO2 140216Z 18010KT 23/05 A2997 RMK A01 T02320054  RH  031%=      5-min Rain = 0
KCO2 140217Z 17010KT 23/05 A2997 RMK A01 T02320054  RH  031%=      5-min Rain = 0
KCO2 140218Z 17008KT 23/05 A2997 RMK A01 T02320054  RH  031%=      5-min Rain = 0
KCO2 140219Z 17006KT 23/05 A2997 RMK A01 T02320054  RH  032%=      5-min Rain = 0
KCO2 140220Z 17008KT 23/05 A2997 RMK A01 T02300054  RH  032%=      5-min Rain = 0
KCO2 140221Z 18008KT 23/05 A2997 RMK A01 T02290054  RH  032%=      5-min Rain = 0
KCO2 140222Z 17007KT 23/05 A2997 RMK A01 T02280054  RH  032%=      5-min Rain = 0
KCO2 140223Z 17008KT 23/05 A2997 RMK A01 T02280054  RH  032%=      5-min Rain = 0
KCO2 140224Z 17009KT 23/05 A2997 RMK A01 T02270054  RH  032%=      5-min Rain = 0
KCO2 140225Z 17008KT 23/05 A2997 RMK A01 T02270054  RH  032%=      5-min Rain = 0
KCO2 140226Z 18008KT 23/05 A2997 RMK A01 T02270054  RH  032%=      5-min Rain = 0
KCO2 140227Z 18009KT 23/05 A2997 RMK A01 T02270054  RH  032%=      5-min Rain = 0
KCO2 140228Z 18012KT 23/05 A2997 RMK A01 T02270054  RH  032%=      5-min Rain = 0
KCO2 140229Z 18010KT 23/05 A2997 RMK A01 T02270053  RH  032%=      5-min Rain = 0
KCO2 140230Z 18010KT 23/05 A2997 RMK A01 T02280053  RH  032%=      5-min Rain = 0
KCO2 140231Z 19009KT 23/05 A2997 RMK A01 T02280054  RH  032%=      5-min Rain = 0
KCO2 140232Z 19010KT 23/05 A2997 RMK A01 T02280054  RH  032%=      5-min Rain = 0
KCO2 140233Z 18009KT 23/05 A2997 RMK A01 T02280054  RH  032%=      5-min Rain = 0
KCO2 140234Z 18010KT 23/05 A2997 RMK A01 T02280054  RH  032%=      5-min Rain = 0
KCO2 140235Z 18009KT 23/05 A2997 RMK A01 T02270054  RH  032%=      5-min Rain = 0
KCO2 140236Z 18007G12KT 23/05 A2997 RMK A01 T02270054  RH  032%=      5-min Rain = 0
KCO2 140237Z 18009KT 23/05 A2997 RMK A01 T02270054  RH  033%=      5-min Rain = 0
KCO2 140238Z 19007KT 23/05 A2997 RMK A01 T02260054  RH  033%=      5-min Rain = 0
KCO2 140239Z 18010KT 23/05 A2997 RMK A01 T02250054  RH  033%=      5-min Rain = 0
KCO2 140240Z 19008KT 23/05 A2997 RMK A01 T02250054  RH  033%=      5-min Rain = 0
KCO2 140241Z 19008KT 23/05 A2997 RMK A01 T02250054  RH  033%=      5-min Rain = 0
KCO2 140242Z 18009KT 23/05 A2997 RMK A01 T02250054  RH  033%=      5-min Rain = 0
KCO2 140243Z 18009KT 23/06 A2997 RMK A01 T02250055  RH  033%=      5-min Rain = 0
KCO2 140244Z 18008KT 23/05 A2997 RMK A01 T02250054  RH  033%=      5-min Rain = 0
KCO2 140245Z 18007KT 23/06 A2997 RMK A01 T02250055  RH  033%=      5-min Rain = 0
KCO2 140246Z 19008KT 22/06 A2997 RMK A01 T02240055  RH  033%=      5-min Rain = 0
KCO2 140247Z 18008KT 22/06 A2997 RMK A01 T02230055  RH  033%=      5-min Rain = 0
KCO2 140248Z 18009KT 22/06 A2997 RMK A01 T02230055  RH  033%=      5-min Rain = 0
KCO2 140249Z 18009KT 22/06 A2997 RMK A01 T02230055  RH  033%=      5-min Rain = 0
KCO2 140250Z 18007KT 22/06 A2998 RMK A01 T02240055  RH  033%=      5-min Rain = 0
KCO2 140251Z 18008KT 22/06 A2998 RMK A01 T02230055  RH  033%=      5-min Rain = 0
KCO2 140252Z 18010KT 22/06 A2998 RMK A01 T02230055  RH  034%=      5-min Rain = 0
KCO2 140253Z 18008KT 22/06 A2998 RMK A01 T02230055  RH  034%=      5-min Rain = 0
KCO2 140254Z 18008KT 22/06 A2998 RMK A01 T02230055  RH  034%=      5-min Rain = 0
KCO2 140255Z 18009KT 22/06 A2998 RMK A01 T02230056  RH  034%=      5-min Rain = 0
KCO2 140256Z 17010KT 22/06 A2998 RMK A01 T02230056  RH  034%=      5-min Rain = 0
KCO2 140257Z 17009KT 22/06 A2998 RMK A01 T02230056  RH  034%=      5-min Rain = 0
KCO2 140258Z 18010KT 22/06 A2998 RMK A01 T02230056  RH  034%=      5-min Rain = 0
KCO2 140259Z 17008KT 22/06 A2998 RMK A01 T02230056  RH  034%=      5-min Rain = 0
KCO2 140300Z 17006KT 22/06 A2998 RMK A01 T02220056  RH  034%=      5-min Rain = 0
KCO2 140301Z 17007KT 22/06 A2998 RMK A01 T02220056  RH  034%=      5-min Rain = 0
KCO2 140302Z 17007KT 22/06 A2998 RMK A01 T02210056  RH  034%=      5-min Rain = 0
KCO2 140303Z 16006KT 22/06 A2998 RMK A01 T02210056  RH  034%=      5-min Rain = 0
KCO2 140304Z 17007KT 22/06 A2998 RMK A01 T02200056  RH  034%=      5-min Rain = 0
KCO2 140305Z 16007KT 22/06 A2998 RMK A01 T02200057  RH  035%=      5-min Rain = 0
KCO2 140306Z 17008KT 22/06 A2998 RMK A01 T02190057  RH  035%=      5-min Rain = 0
KCO2 140307Z 16008KT 22/06 A2998 RMK A01 T02180056  RH  035%=      5-min Rain = 0
KCO2 140308Z 16007KT 22/06 A2998 RMK A01 T02180056  RH  035%=      5-min Rain = 0
KCO2 140309Z 16008KT 22/06 A2998 RMK A01 T02180057  RH  035%=      5-min Rain = 0
KCO2 140310Z 16007KT 22/06 A2998 RMK A01 T02180057  RH  035%=      5-min Rain = 0
KCO2 140311Z 16007KT 22/06 A2998 RMK A01 T02180057  RH  035%=      5-min Rain = 0
KCO2 140312Z 16006KT 22/06 A2998 RMK A01 T02180057  RH  035%=      5-min Rain = 0
KCO2 140313Z 16006KT 22/06 A2998 RMK A01 T02170057  RH  035%=      5-min Rain = 0
KCO2 140314Z 16007KT 22/06 A2998 RMK A01 T02170057  RH  035%=      5-min Rain = 0
KCO2 140315Z 16007KT 22/06 A2998 RMK A01 T02160057  RH  035%=      5-min Rain = 0
KCO2 140316Z 16007KT 22/06 A2998 RMK A01 T02160057  RH  035%=      5-min Rain = 0
KCO2 140317Z 16007KT 22/06 A2998 RMK A01 T02160057  RH  035%=      5-min Rain = 0
KCO2 140318Z 16006KT 22/06 A2998 RMK A01 T02160057  RH  035%=      5-min Rain = 0
KCO2 140319Z 16006KT 22/06 A2998 RMK A01 T02160057  RH  035%=      5-min Rain = 0
KCO2 140320Z 16007KT 22/06 A2998 RMK A01 T02160057  RH  036%=      5-min Rain = 0
KCO2 140321Z 17006KT 22/06 A2998 RMK A01 T02150057  RH  036%=      5-min Rain = 0
KCO2 140322Z 16006KT 22/06 A2998 RMK A01 T02150058  RH  036%=      5-min Rain = 0
KCO2 140323Z 16007KT 22/06 A2998 RMK A01 T02150057  RH  036%=      5-min Rain = 0
KCO2 140324Z 16007KT 22/06 A2998 RMK A01 T02150058  RH  036%=      5-min Rain = 0
KCO2 140325Z 17007KT 21/06 A2998 RMK A01 T02140058  RH  036%=      5-min Rain = 0
KCO2 140326Z 17007KT 21/06 A2998 RMK A01 T02140058  RH  036%=      5-min Rain = 0
KCO2 140327Z 17006KT 21/06 A2998 RMK A01 T02140058  RH  036%=      5-min Rain = 0
KCO2 140328Z 17007KT 21/06 A2998 RMK A01 T02140058  RH  036%=      5-min Rain = 0
KCO2 140329Z 16006KT 21/06 A2998 RMK A01 T02140058  RH  036%=      5-min Rain = 0
KCO2 140330Z 16007KT 21/06 A2998 RMK A01 T02130058  RH  036%=      5-min Rain = 0
KCO2 140331Z 16006KT 21/06 A2998 RMK A01 T02130058  RH  036%=      5-min Rain = 0
KCO2 140332Z 16006KT 21/06 A2998 RMK A01 T02130059  RH  037%=      5-min Rain = 0
KCO2 140333Z 16005KT 21/06 A2998 RMK A01 T02120059  RH  037%=      5-min Rain = 0
KCO2 140334Z 16006KT 21/06 A2998 RMK A01 T02110058  RH  037%=      5-min Rain = 0
KCO2 140335Z 16006KT 21/06 A2998 RMK A01 T02110058  RH  037%=      5-min Rain = 0
KCO2 140336Z 16006KT 21/06 A2998 RMK A01 T02110058  RH  037%=      5-min Rain = 0
KCO2 140337Z 16006KT 21/06 A2998 RMK A01 T02100058  RH  037%=      5-min Rain = 0
KCO2 140338Z 16006KT 21/06 A2998 RMK A01 T02100059  RH  037%=      5-min Rain = 0
KCO2 140339Z 16006KT 21/06 A2998 RMK A01 T02100058  RH  037%=      5-min Rain = 0
KCO2 140340Z 16006KT 21/06 A2998 RMK A01 T02090058  RH  037%=      5-min Rain = 0
KCO2 140341Z 16005KT 21/06 A2998 RMK A01 T02090058  RH  037%=      5-min Rain = 0
KCO2 140342Z 16005KT 21/06 A2998 RMK A01 T02090058  RH  037%=      5-min Rain = 0
KCO2 140343Z 15005KT 21/06 A2998 RMK A01 T02080058  RH  037%=      5-min Rain = 0
KCO2 140344Z 15005KT 21/06 A2998 RMK A01 T02080058  RH  038%=      5-min Rain = 0
KCO2 140345Z 13005KT 21/06 A2998 RMK A01 T02070058  RH  038%=      5-min Rain = 0
KCO2 140346Z 13005KT 21/06 A2998 RMK A01 T02060059  RH  038%=      5-min Rain = 0
KCO2 140347Z 13005KT 21/06 A2998 RMK A01 T02050059  RH  039%=      5-min Rain = 0
KCO2 140348Z 13006KT 20/06 A2998 RMK A01 T02040060  RH  039%=      5-min Rain = 0
KCO2 140349Z 13006KT 20/06 A2998 RMK A01 T02020060  RH  039%=      5-min Rain = 0
KCO2 140350Z 13006KT 20/06 A2998 RMK A01 T02020060  RH  040%=      5-min Rain = 0
KCO2 140351Z 13006KT 20/06 A2998 RMK A01 T02010060  RH  040%=      5-min Rain = 0
KCO2 140352Z 13006KT 20/06 A2998 RMK A01 T02000059  RH  040%=      5-min Rain = 0
KCO2 140353Z 13006KT 20/06 A2998 RMK A01 T02000059  RH  040%=      5-min Rain = 0
KCO2 140354Z 13007KT 20/06 A2998 RMK A01 T01990059  RH  040%=      5-min Rain = 0
KCO2 140355Z 14007KT 20/06 A2998 RMK A01 T01990058  RH  040%=      5-min Rain = 0
KCO2 140356Z 14007KT 20/06 A2998 RMK A01 T01990058  RH  040%=      5-min Rain = 0
KCO2 140357Z 15007KT 20/06 A2998 RMK A01 T01990058  RH  040%=      5-min Rain = 0
KCO2 140358Z 15007KT 20/06 A2998 RMK A01 T01990057  RH  040%=      5-min Rain = 0
KCO2 140359Z 15008KT 20/06 A2998 RMK A01 T01990057  RH  039%=      5-min Rain = 0
KCO2 140400Z 15007KT 20/06 A2998 RMK A01 T01990057  RH  039%=      5-min Rain = 0
KCO2 140401Z 15007KT 20/06 A2998 RMK A01 T02000057  RH  039%=      5-min Rain = 0
KCO2 140402Z 15007KT 20/06 A2998 RMK A01 T02000057  RH  039%=      5-min Rain = 0
KCO2 140403Z 16007KT 20/06 A2998 RMK A01 T02000057  RH  039%=      5-min Rain = 0
KCO2 140404Z 15007KT 20/06 A2998 RMK A01 T02010057  RH  039%=      5-min Rain = 0
KCO2 140405Z 15007KT 20/06 A2998 RMK A01 T02000057  RH  039%=      5-min Rain = 0
KCO2 140406Z 15006KT 20/06 A2998 RMK A01 T02010057  RH  039%=      5-min Rain = 0
KCO2 140407Z 15007KT 20/06 A2998 RMK A01 T02000057  RH  039%=      5-min Rain = 0
KCO2 140408Z 16007KT 20/06 A2998 RMK A01 T01990057  RH  039%=      5-min Rain = 0
KCO2 140409Z 15007KT 20/06 A2998 RMK A01 T01990058  RH  040%=      5-min Rain = 0
KCO2 140410Z 15006KT 20/06 A2998 RMK A01 T01980058  RH  040%=      5-min Rain = 0
KCO2 140411Z 15007KT 20/06 A2998 RMK A01 T01970058  RH  040%=      5-min Rain = 0
KCO2 140412Z 15007KT 20/06 A2998 RMK A01 T01960058  RH  040%=      5-min Rain = 0
KCO2 140413Z 15007KT 20/06 A2998 RMK A01 T01950059  RH  041%=      5-min Rain = 0
KCO2 140414Z 15007KT 20/06 A2998 RMK A01 T01950059  RH  041%=      5-min Rain = 0
KCO2 140415Z 15007KT 20/06 A2998 RMK A01 T01950059  RH  041%=      5-min Rain = 0
KCO2 140416Z 15006KT 19/06 A2998 RMK A01 T01940059  RH  041%=      5-min Rain = 0
KCO2 140417Z 15006KT 19/06 A2998 RMK A01 T01940059  RH  041%=      5-min Rain = 0
KCO2 140418Z 15006KT 19/06 A2998 RMK A01 T01940059  RH  041%=      5-min Rain = 0
KCO2 140419Z 15006KT 19/06 A2999 RMK A01 T01930059  RH  041%=      5-min Rain = 0
KCO2 140420Z 15006KT 19/06 A2999 RMK A01 T01930059  RH  042%=      5-min Rain = 0
KCO2 140421Z 15006KT 19/06 A2999 RMK A01 T01930059  RH  042%=      5-min Rain = 0
KCO2 140422Z 15006KT 19/06 A2999 RMK A01 T01920059  RH  042%=      5-min Rain = 0
KCO2 140423Z 15006KT 19/06 A2999 RMK A01 T01910059  RH  042%=      5-min Rain = 0
KCO2 140424Z 14007KT 19/06 A2999 RMK A01 T01910059  RH  042%=      5-min Rain = 0
KCO2 140425Z 14007KT 19/06 A2999 RMK A01 T01910059  RH  042%=      5-min Rain = 0
KCO2 140426Z 14007KT 19/06 A2999 RMK A01 T01900060  RH  042%=      5-min Rain = 0
KCO2 140427Z 14007KT 19/06 A2999 RMK A01 T01900060  RH  042%=      5-min Rain = 0
KCO2 140428Z 14007KT 19/06 A2999 RMK A01 T01900060  RH  042%=      5-min Rain = 0
KCO2 140429Z 14007KT 19/06 A2999 RMK A01 T01900060  RH  043%=      5-min Rain = 0
KCO2 140430Z 14007KT 19/06 A2999 RMK A01 T01900061  RH  043%=      5-min Rain = 0
KCO2 140431Z 14007KT 19/06 A2999 RMK A01 T01890061  RH  043%=      5-min Rain = 0
KCO2 140432Z 15007KT 19/06 A2999 RMK A01 T01900062  RH  043%=      5-min Rain = 0
KCO2 140433Z 15007KT 19/06 A2999 RMK A01 T01890062  RH  043%=      5-min Rain = 0
KCO2 140434Z 15007KT 19/06 A2999 RMK A01 T01890062  RH  043%=      5-min Rain = 0
KCO2 140435Z 15007KT 19/06 A2998 RMK A01 T01890062  RH  043%=      5-min Rain = 0
KCO2 140436Z 15007KT 19/06 A2998 RMK A01 T01890062  RH  043%=      5-min Rain = 0
KCO2 140437Z 15007KT 19/06 A2998 RMK A01 T01900062  RH  043%=      5-min Rain = 0
KCO2 140438Z 16007KT 19/06 A2998 RMK A01 T01900062  RH  043%=      5-min Rain = 0
KCO2 140439Z 16007KT 19/06 A2998 RMK A01 T01910062  RH  043%=      5-min Rain = 0
KCO2 140440Z 16007KT 19/06 A2998 RMK A01 T01900061  RH  043%=      5-min Rain = 0
KCO2 140441Z 16007KT 19/06 A2998 RMK A01 T01910062  RH  043%=      5-min Rain = 0
KCO2 140442Z 16007KT 19/06 A2998 RMK A01 T01910061  RH  043%=      5-min Rain = 0
KCO2 140443Z 16007KT 19/06 A2998 RMK A01 T01910061  RH  043%=      5-min Rain = 0
KCO2 140444Z 16007KT 19/06 A2998 RMK A01 T01910061  RH  043%=      5-min Rain = 0
KCO2 140445Z 16007KT 19/06 A2998 RMK A01 T01920061  RH  042%=      5-min Rain = 0
KCO2 140446Z 16007KT 19/06 A2998 RMK A01 T01920061  RH  042%=      5-min Rain = 0
KCO2 140447Z 16007KT 19/06 A2998 RMK A01 T01920061  RH  042%=      5-min Rain = 0
KCO2 140448Z 16007KT 19/06 A2998 RMK A01 T01920061  RH  042%=      5-min Rain = 0
KCO2 140449Z 16007KT 19/06 A2998 RMK A01 T01930061  RH  042%=      5-min Rain = 0
KCO2 140450Z 16008KT 19/06 A2998 RMK A01 T01920061  RH  042%=      5-min Rain = 0
KCO2 140451Z 16007KT 19/06 A2998 RMK A01 T01930061  RH  042%=      5-min Rain = 0
KCO2 140452Z 16007KT 19/06 A2998 RMK A01 T01930061  RH  042%=      5-min Rain = 0
KCO2 140453Z 16007KT 19/06 A2998 RMK A01 T01930060  RH  042%=      5-min Rain = 0
KCO2 140454Z 16007KT 19/06 A2998 RMK A01 T01930060  RH  042%=      5-min Rain = 0
KCO2 140455Z 16007KT 19/06 A2998 RMK A01 T01920060  RH  042%=      5-min Rain = 0
KCO2 140456Z 16007KT 19/06 A2998 RMK A01 T01920060  RH  042%=      5-min Rain = 0
KCO2 140457Z 16007KT 19/06 A2998 RMK A01 T01920060  RH  042%=      5-min Rain = 0
KCO2 140458Z 16007KT 19/06 A2998 RMK A01 T01920060  RH  042%=      5-min Rain = 0
KCO2 140459Z 16007KT 19/06 A2998 RMK A01 T01920060  RH  042%=      5-min Rain = 0

Page generated in 0.1259 seconds.